Time,TemperatureF,DewpointF,PressureIn,WindDirection,WindDirectionDegrees,WindSpeedMPH,WindSpeedGustMPH,Humidity,HourlyPrecipIn,Conditions,Clouds,dailyrainin,SoftwareType,DateUTC
2013-09-30 00:01:00,52.2,49.4,30.01,SE,135,0.0,0.0,90,0.00,,,0.00,Wunderground v.1.15,2013-09-30 04:01:00,
2013-09-30 00:02:00,52.2,49.4,30.01,SE,135,0.0,0.0,90,0.00,,,0.00,Wunderground v.1.15,2013-09-30 04:02:00,
2013-09-30 00:03:00,52.0,49.2,30.01,SE,135,0.0,0.0,90,0.00,,,0.00,Wunderground v.1.15,2013-09-30 04:03:00,
2013-09-30 00:06:00,52.0,49.2,30.01,SE,135,0.0,0.0,90,0.00,,,0.00,Wunderground v.1.15,2013-09-30 04:06:00,
2013-09-30 00:11:00,51.7,48.9,30.01,SE,135,0.0,0.0,90,0.00,,,0.00,Wunderground v.1.15,2013-09-30 04:11:00,
2013-09-30 00:13:00,51.7,48.9,30.01,SE,135,0.0,0.0,90,0.00,,,0.00,Wunderground v.1.15,2013-09-30 04:13:00,
2013-09-30 00:15:00,51.6,49.1,30.01,SE,135,0.0,0.0,91,0.00,,,0.00,Wunderground v.1.15,2013-09-30 04:15:00,
2013-09-30 00:18:00,51.6,49.1,30.01,SE,135,0.0,0.0,91,0.00,,,0.00,Wunderground v.1.15,2013-09-30 04:18:00,
2013-09-30 00:21:00,51.4,48.9,30.01,SE,135,0.0,0.0,91,0.00,,,0.00,Wunderground v.1.15,2013-09-30 04:21:00,
2013-09-30 00:25:00,51.3,48.8,30.01,SE,135,0.0,0.0,91,0.00,,,0.00,Wunderground v.1.15,2013-09-30 04:25:00,
2013-09-30 00:26:00,51.1,48.6,30.01,SE,135,0.0,0.0,91,0.00,,,0.00,Wunderground v.1.15,2013-09-30 04:26:00,
2013-09-30 00:27:00,51.1,48.6,30.01,SE,135,0.0,0.0,91,0.00,,,0.00,Wunderground v.1.15,2013-09-30 04:27:00,
2013-09-30 00:30:00,51.0,48.5,30.01,SE,135,0.0,0.0,91,0.00,,,0.00,Wunderground v.1.15,2013-09-30 04:30:00,
2013-09-30 00:31:00,50.8,48.3,30.01,SE,135,0.0,0.0,91,0.00,,,0.00,Wunderground v.1.15,2013-09-30 04:31:00,
2013-09-30 00:32:00,50.8,48.3,30.01,SE,135,0.0,0.0,91,0.00,,,0.00,Wunderground v.1.15,2013-09-30 04:32:00,
2013-09-30 00:35:00,50.5,48.0,30.01,SE,135,0.0,0.0,91,0.00,,,0.00,Wunderground v.1.15,2013-09-30 04:35:00,
2013-09-30 00:36:00,50.5,48.0,30.01,SE,135,0.0,0.0,91,0.00,,,0.00,Wunderground v.1.15,2013-09-30 04:36:00,
2013-09-30 00:37:00,50.5,48.0,30.01,SE,135,0.0,0.0,91,0.00,,,0.00,Wunderground v.1.15,2013-09-30 04:37:00,
2013-09-30 00:40:00,50.4,47.9,30.01,SE,135,0.0,0.0,91,0.00,,,0.00,Wunderground v.1.15,2013-09-30 04:40:00,
2013-09-30 00:42:00,50.2,47.7,30.01,SE,135,0.0,0.0,91,0.00,,,0.00,Wunderground v.1.15,2013-09-30 04:42:00,
2013-09-30 00:45:00,50.1,47.6,30.01,SE,135,0.0,0.0,91,0.00,,,0.00,Wunderground v.1.15,2013-09-30 04:45:00,
2013-09-30 00:47:00,49.9,47.4,30.01,SE,135,0.0,0.0,91,0.00,,,0.00,Wunderground v.1.15,2013-09-30 04:47:00,
2013-09-30 00:49:00,49.9,47.4,30.01,SE,135,0.0,0.0,91,0.00,,,0.00,Wunderground v.1.15,2013-09-30 04:49:00,
2013-09-30 00:50:00,49.8,47.3,30.01,SE,135,0.0,0.0,91,0.00,,,0.00,Wunderground v.1.15,2013-09-30 04:50:00,
2013-09-30 00:53:00,49.6,47.4,30.01,SE,135,0.0,0.0,92,0.00,,,0.00,Wunderground v.1.15,2013-09-30 04:53:00,
2013-09-30 00:54:00,49.6,47.4,30.01,SE,135,0.0,0.0,92,0.00,,,0.00,Wunderground v.1.15,2013-09-30 04:54:00,
2013-09-30 00:56:00,49.6,47.4,30.01,SE,135,0.0,0.0,92,0.00,,,0.00,Wunderground v.1.15,2013-09-30 04:56:00,
2013-09-30 00:57:00,49.6,47.4,30.01,SE,135,0.0,0.0,92,0.00,,,0.00,Wunderground v.1.15,2013-09-30 04:57:00,
2013-09-30 01:01:00,49.6,47.4,30.01,SE,135,0.0,0.0,92,0.00,,,0.00,Wunderground v.1.15,2013-09-30 05:01:00,
2013-09-30 01:02:00,49.6,47.4,30.01,SE,135,0.0,0.0,92,0.00,,,0.00,Wunderground v.1.15,2013-09-30 05:02:00,
2013-09-30 01:05:00,49.5,47.6,30.01,SE,135,0.0,0.0,93,0.00,,,0.00,Wunderground v.1.15,2013-09-30 05:05:00,
2013-09-30 01:07:00,49.5,47.6,30.01,SE,135,0.0,0.0,93,0.00,,,0.00,Wunderground v.1.15,2013-09-30 05:07:00,
2013-09-30 01:08:00,49.6,47.7,30.01,SE,135,0.0,0.0,93,0.00,,,0.00,Wunderground v.1.15,2013-09-30 05:08:00,
2013-09-30 01:11:00,49.5,47.6,30.01,SE,135,0.0,0.0,93,0.00,,,0.00,Wunderground v.1.15,2013-09-30 05:11:00,
2013-09-30 01:15:00,49.4,47.5,30.01,SE,135,0.0,0.0,93,0.00,,,0.00,Wunderground v.1.15,2013-09-30 05:15:00,
2013-09-30 01:17:00,49.4,47.5,30.01,SE,135,0.0,0.0,93,0.00,,,0.00,Wunderground v.1.15,2013-09-30 05:17:00,
2013-09-30 01:19:00,49.2,47.3,30.01,SE,135,0.0,0.0,93,0.00,,,0.00,Wunderground v.1.15,2013-09-30 05:19:00,
2013-09-30 01:20:00,49.2,47.3,30.01,SE,135,0.0,0.0,93,0.00,,,0.00,Wunderground v.1.15,2013-09-30 05:20:00,
2013-09-30 01:25:00,48.9,47.0,30.01,SE,135,0.0,0.0,93,0.00,,,0.00,Wunderground v.1.15,2013-09-30 05:25:00,
2013-09-30 01:26:00,48.9,47.0,30.01,SE,135,0.0,0.0,93,0.00,,,0.00,Wunderground v.1.15,2013-09-30 05:26:00,
2013-09-30 01:27:00,48.9,47.0,30.01,SE,135,0.0,0.0,93,0.00,,,0.00,Wunderground v.1.15,2013-09-30 05:27:00,
2013-09-30 01:31:00,48.8,47.2,30.01,SE,135,0.0,0.0,94,0.00,,,0.00,Wunderground v.1.15,2013-09-30 05:31:00,
2013-09-30 01:32:00,48.8,47.2,30.01,SE,135,0.0,0.0,94,0.00,,,0.00,Wunderground v.1.15,2013-09-30 05:32:00,
2013-09-30 01:35:00,48.8,47.2,30.01,SE,135,0.0,0.0,94,0.00,,,0.00,Wunderground v.1.15,2013-09-30 05:35:00,
2013-09-30 01:36:00,48.8,47.2,30.01,SE,135,0.0,0.0,94,0.00,,,0.00,Wunderground v.1.15,2013-09-30 05:36:00,
2013-09-30 01:37:00,48.8,47.2,30.01,SE,135,0.0,0.0,94,0.00,,,0.00,Wunderground v.1.15,2013-09-30 05:37:00,
2013-09-30 01:42:00,48.8,47.2,30.01,SE,135,0.0,0.0,94,0.00,,,0.00,Wunderground v.1.15,2013-09-30 05:42:00,
2013-09-30 01:43:00,48.8,47.2,30.01,SE,135,0.0,0.0,94,0.00,,,0.00,Wunderground v.1.15,2013-09-30 05:43:00,
2013-09-30 01:47:00,48.8,47.2,30.01,SE,135,0.0,0.0,94,0.00,,,0.00,Wunderground v.1.15,2013-09-30 05:47:00,
2013-09-30 01:48:00,48.8,47.2,30.01,SE,135,0.0,0.0,94,0.00,,,0.00,Wunderground v.1.15,2013-09-30 05:48:00,
2013-09-30 01:49:00,48.6,47.0,30.01,SE,135,0.0,0.0,94,0.00,,,0.00,Wunderground v.1.15,2013-09-30 05:49:00,
2013-09-30 01:52:00,48.6,47.0,30.01,SE,135,0.0,0.0,94,0.00,,,0.00,Wunderground v.1.15,2013-09-30 05:52:00,
2013-09-30 01:54:00,48.6,47.0,30.01,SE,135,0.0,0.0,94,0.00,,,0.00,Wunderground v.1.15,2013-09-30 05:54:00,
2013-09-30 01:55:00,48.6,47.0,30.01,SE,135,0.0,0.0,94,0.00,,,0.00,Wunderground v.1.15,2013-09-30 05:55:00,
2013-09-30 01:56:00,48.6,47.2,30.01,SE,135,0.0,0.0,95,0.00,,,0.00,Wunderground v.1.15,2013-09-30 05:56:00,
2013-09-30 01:58:00,48.6,47.2,30.01,SE,135,0.0,0.0,95,0.00,,,0.00,Wunderground v.1.15,2013-09-30 05:58:00,
2013-09-30 02:02:00,48.5,47.1,30.01,SE,135,0.0,0.0,95,0.00,,,0.00,Wunderground v.1.15,2013-09-30 06:02:00,
2013-09-30 02:04:00,48.5,47.1,30.01,SE,135,0.0,0.0,95,0.00,,,0.00,Wunderground v.1.15,2013-09-30 06:04:00,
2013-09-30 02:05:00,48.5,47.1,30.01,SE,135,0.0,0.0,95,0.00,,,0.00,Wunderground v.1.15,2013-09-30 06:05:00,
2013-09-30 02:06:00,48.5,47.1,30.01,SE,135,0.0,0.0,95,0.00,,,0.00,Wunderground v.1.15,2013-09-30 06:06:00,
2013-09-30 02:08:00,48.3,46.9,30.01,SE,135,0.0,0.0,95,0.00,,,0.00,Wunderground v.1.15,2013-09-30 06:08:00,
2013-09-30 02:10:00,48.3,46.9,30.01,SE,135,0.0,0.0,95,0.00,,,0.00,Wunderground v.1.15,2013-09-30 06:10:00,
2013-09-30 02:11:00,48.3,46.9,30.01,SE,135,0.0,0.0,95,0.00,,,0.00,Wunderground v.1.15,2013-09-30 06:11:00,
2013-09-30 02:13:00,48.3,46.9,30.01,SE,135,0.0,0.0,95,0.00,,,0.00,Wunderground v.1.15,2013-09-30 06:13:00,
2013-09-30 02:14:00,48.3,46.9,30.01,SE,135,0.0,0.0,95,0.00,,,0.00,Wunderground v.1.15,2013-09-30 06:14:00,
2013-09-30 02:15:00,48.3,46.9,30.01,SE,135,0.0,0.0,95,0.00,,,0.00,Wunderground v.1.15,2013-09-30 06:15:00,
2013-09-30 02:20:00,48.2,46.8,30.01,SE,135,0.0,0.0,95,0.00,,,0.00,Wunderground v.1.15,2013-09-30 06:20:00,
2013-09-30 02:21:00,48.2,46.8,30.01,SE,135,0.0,0.0,95,0.00,,,0.00,Wunderground v.1.15,2013-09-30 06:21:00,
2013-09-30 02:23:00,48.0,46.6,30.01,SE,135,0.0,0.0,95,0.00,,,0.00,Wunderground v.1.15,2013-09-30 06:23:00,
2013-09-30 02:25:00,48.0,46.6,30.01,SE,135,0.0,1.0,95,0.00,,,0.00,Wunderground v.1.15,2013-09-30 06:25:00,
2013-09-30 02:26:00,48.0,46.6,30.01,SE,135,0.0,1.0,95,0.00,,,0.00,Wunderground v.1.15,2013-09-30 06:26:00,
2013-09-30 02:28:00,48.0,46.6,30.01,SE,135,0.0,1.0,95,0.00,,,0.00,Wunderground v.1.15,2013-09-30 06:28:00,
2013-09-30 02:31:00,47.9,46.5,30.01,SE,135,0.0,0.0,95,0.00,,,0.00,Wunderground v.1.15,2013-09-30 06:31:00,
2013-09-30 02:34:00,47.9,46.5,30.01,SE,135,0.0,0.0,95,0.00,,,0.00,Wunderground v.1.15,2013-09-30 06:34:00,
2013-09-30 02:36:00,47.9,46.5,30.01,SE,135,0.0,0.0,95,0.00,,,0.00,Wunderground v.1.15,2013-09-30 06:36:00,
2013-09-30 02:38:00,47.9,46.5,30.01,SE,135,0.0,0.0,95,0.00,,,0.00,Wunderground v.1.15,2013-09-30 06:38:00,
2013-09-30 02:40:00,47.9,46.5,30.01,SE,135,0.0,0.0,95,0.00,,,0.00,Wunderground v.1.15,2013-09-30 06:40:00,
2013-09-30 02:43:00,48.0,46.9,30.01,SE,135,0.0,0.0,96,0.00,,,0.00,Wunderground v.1.15,2013-09-30 06:43:00,
2013-09-30 02:46:00,48.0,46.6,30.01,SE,135,0.0,0.0,95,0.00,,,0.00,Wunderground v.1.15,2013-09-30 06:46:00,
2013-09-30 02:49:00,47.9,46.5,30.01,SE,135,0.0,0.0,95,0.00,,,0.00,Wunderground v.1.15,2013-09-30 06:49:00,
2013-09-30 02:50:00,47.9,46.5,30.01,SE,135,0.0,0.0,95,0.00,,,0.00,Wunderground v.1.15,2013-09-30 06:50:00,
2013-09-30 02:52:00,47.7,46.6,30.01,SE,135,0.0,0.0,96,0.00,,,0.00,Wunderground v.1.15,2013-09-30 06:52:00,
2013-09-30 02:53:00,47.7,46.6,30.00,SE,135,0.0,1.0,96,0.00,,,0.00,Wunderground v.1.15,2013-09-30 06:53:00,
2013-09-30 02:55:00,47.9,46.8,30.00,SE,135,0.0,1.0,96,0.00,,,0.00,Wunderground v.1.15,2013-09-30 06:55:00,
2013-09-30 02:58:00,47.9,46.8,30.00,SE,135,0.0,1.0,96,0.00,,,0.00,Wunderground v.1.15,2013-09-30 06:58:00,
2013-09-30 02:59:00,47.9,46.8,30.00,SE,135,0.0,1.0,96,0.00,,,0.00,Wunderground v.1.15,2013-09-30 06:59:00,
2013-09-30 03:00:00,47.7,46.6,30.00,SE,135,0.0,0.0,96,0.00,,,0.00,Wunderground v.1.15,2013-09-30 07:00:00,
2013-09-30 03:01:00,47.7,46.6,30.00,SE,135,0.0,0.0,96,0.00,,,0.00,Wunderground v.1.15,2013-09-30 07:01:00,
2013-09-30 03:05:00,47.7,46.6,30.00,SE,135,0.0,0.0,96,0.00,,,0.00,Wunderground v.1.15,2013-09-30 07:05:00,
2013-09-30 03:07:00,47.6,46.5,30.00,SE,135,0.0,0.0,96,0.00,,,0.00,Wunderground v.1.15,2013-09-30 07:07:00,
2013-09-30 03:11:00,47.6,46.5,30.00,SE,135,0.0,0.0,96,0.00,,,0.00,Wunderground v.1.15,2013-09-30 07:11:00,
2013-09-30 03:12:00,47.6,46.5,30.00,SE,135,0.0,0.0,96,0.00,,,0.00,Wunderground v.1.15,2013-09-30 07:12:00,
2013-09-30 03:15:00,47.4,46.3,30.00,SE,135,0.0,0.0,96,0.00,,,0.00,Wunderground v.1.15,2013-09-30 07:15:00,
2013-09-30 03:16:00,47.4,46.3,30.00,SE,135,0.0,0.0,96,0.00,,,0.00,Wunderground v.1.15,2013-09-30 07:16:00,
2013-09-30 03:18:00,47.4,46.3,30.00,SE,135,0.0,0.0,96,0.00,,,0.00,Wunderground v.1.15,2013-09-30 07:18:00,
2013-09-30 03:22:00,47.4,46.3,30.00,SE,135,0.0,0.0,96,0.00,,,0.00,Wunderground v.1.15,2013-09-30 07:22:00,
2013-09-30 03:25:00,47.3,46.2,30.00,SE,135,0.0,0.0,96,0.00,,,0.00,Wunderground v.1.15,2013-09-30 07:25:00,
2013-09-30 03:27:00,47.3,46.2,30.00,SE,135,0.0,0.0,96,0.00,,,0.00,Wunderground v.1.15,2013-09-30 07:27:00,
2013-09-30 03:31:00,47.1,46.0,30.00,SE,135,0.0,0.0,96,0.00,,,0.00,Wunderground v.1.15,2013-09-30 07:31:00,
2013-09-30 03:35:00,47.1,46.0,30.00,SE,135,0.0,0.0,96,0.00,,,0.00,Wunderground v.1.15,2013-09-30 07:35:00,
2013-09-30 03:36:00,47.1,46.0,30.00,SE,135,0.0,0.0,96,0.00,,,0.00,Wunderground v.1.15,2013-09-30 07:36:00,
2013-09-30 03:37:00,47.1,46.0,30.00,SE,135,0.0,0.0,96,0.00,,,0.00,Wunderground v.1.15,2013-09-30 07:37:00,
2013-09-30 03:40:00,47.0,45.9,30.00,SE,135,0.0,0.0,96,0.00,,,0.00,Wunderground v.1.15,2013-09-30 07:40:00,
2013-09-30 03:41:00,47.0,45.9,30.00,SE,135,0.0,0.0,96,0.00,,,0.00,Wunderground v.1.15,2013-09-30 07:41:00,
2013-09-30 03:43:00,47.0,45.9,30.00,SE,135,0.0,0.0,96,0.00,,,0.00,Wunderground v.1.15,2013-09-30 07:43:00,
2013-09-30 03:44:00,47.0,45.9,30.00,SE,135,0.0,0.0,96,0.00,,,0.00,Wunderground v.1.15,2013-09-30 07:44:00,
2013-09-30 03:46:00,46.8,45.7,30.00,SE,135,0.0,0.0,96,0.00,,,0.00,Wunderground v.1.15,2013-09-30 07:46:00,
2013-09-30 03:48:00,46.8,45.7,30.00,SE,135,0.0,0.0,96,0.00,,,0.00,Wunderground v.1.15,2013-09-30 07:48:00,
2013-09-30 03:50:00,46.8,45.7,30.00,SE,135,0.0,0.0,96,0.00,,,0.00,Wunderground v.1.15,2013-09-30 07:50:00,
2013-09-30 03:51:00,46.8,45.7,30.00,SE,135,0.0,0.0,96,0.00,,,0.00,Wunderground v.1.15,2013-09-30 07:51:00,
2013-09-30 03:54:00,46.8,45.7,30.00,SE,135,0.0,0.0,96,0.00,,,0.00,Wunderground v.1.15,2013-09-30 07:54:00,
2013-09-30 03:56:00,46.8,45.7,30.00,SE,135,0.0,0.0,96,0.00,,,0.00,Wunderground v.1.15,2013-09-30 07:56:00,
2013-09-30 03:58:00,46.8,45.7,30.00,SE,135,0.0,0.0,96,0.00,,,0.00,Wunderground v.1.15,2013-09-30 07:58:00,
2013-09-30 03:59:00,46.7,45.6,30.00,SE,135,0.0,0.0,96,0.00,,,0.00,Wunderground v.1.15,2013-09-30 07:59:00,
2013-09-30 04:04:00,46.5,45.4,30.00,SE,135,0.0,0.0,96,0.00,,,0.00,Wunderground v.1.15,2013-09-30 08:04:00,
2013-09-30 04:05:00,46.5,45.4,30.00,SE,135,0.0,0.0,96,0.00,,,0.00,Wunderground v.1.15,2013-09-30 08:05:00,
2013-09-30 04:06:00,46.4,45.3,30.00,SE,135,0.0,0.0,96,0.00,,,0.00,Wunderground v.1.15,2013-09-30 08:06:00,
2013-09-30 04:09:00,46.5,45.4,30.00,SE,135,0.0,0.0,96,0.00,,,0.00,Wunderground v.1.15,2013-09-30 08:09:00,
2013-09-30 04:12:00,46.5,45.4,30.00,SE,135,0.0,0.0,96,0.00,,,0.00,Wunderground v.1.15,2013-09-30 08:12:00,
2013-09-30 04:13:00,46.5,45.4,30.00,SE,135,0.0,0.0,96,0.00,,,0.00,Wunderground v.1.15,2013-09-30 08:13:00,
2013-09-30 04:15:00,46.4,45.3,30.00,SE,135,0.0,0.0,96,0.00,,,0.00,Wunderground v.1.15,2013-09-30 08:15:00,
2013-09-30 04:17:00,46.4,45.3,30.00,SE,135,0.0,0.0,96,0.00,,,0.00,Wunderground v.1.15,2013-09-30 08:17:00,
2013-09-30 04:19:00,46.4,45.6,30.00,SE,135,0.0,0.0,97,0.00,,,0.00,Wunderground v.1.15,2013-09-30 08:19:00,
2013-09-30 04:20:00,46.4,45.3,30.00,SE,135,0.0,0.0,96,0.00,,,0.00,Wunderground v.1.15,2013-09-30 08:20:00,
2013-09-30 04:23:00,46.4,45.6,30.01,SE,135,0.0,0.0,97,0.00,,,0.00,Wunderground v.1.15,2013-09-30 08:23:00,
2013-09-30 04:25:00,46.4,45.6,30.01,SE,135,0.0,0.0,97,0.00,,,0.00,Wunderground v.1.15,2013-09-30 08:25:00,
2013-09-30 04:26:00,46.4,45.6,30.01,SE,135,0.0,0.0,97,0.00,,,0.00,Wunderground v.1.15,2013-09-30 08:26:00,
2013-09-30 04:28:00,46.4,45.6,30.01,SE,135,0.0,0.0,97,0.00,,,0.00,Wunderground v.1.15,2013-09-30 08:28:00,
2013-09-30 04:30:00,46.4,45.3,30.01,SE,135,0.0,0.0,96,0.00,,,0.00,Wunderground v.1.15,2013-09-30 08:30:00,
2013-09-30 04:32:00,46.4,45.3,30.01,SE,135,0.0,0.0,96,0.00,,,0.00,Wunderground v.1.15,2013-09-30 08:32:00,
2013-09-30 04:35:00,46.2,45.1,30.01,SE,135,0.0,0.0,96,0.00,,,0.00,Wunderground v.1.15,2013-09-30 08:35:00,
2013-09-30 04:37:00,46.2,45.1,30.01,SE,135,0.0,0.0,96,0.00,,,0.00,Wunderground v.1.15,2013-09-30 08:37:00,
2013-09-30 04:39:00,46.1,45.0,30.01,SE,135,0.0,0.0,96,0.00,,,0.00,Wunderground v.1.15,2013-09-30 08:39:00,
2013-09-30 04:41:00,46.1,45.0,30.01,SE,135,0.0,0.0,96,0.00,,,0.00,Wunderground v.1.15,2013-09-30 08:41:00,
2013-09-30 04:44:00,46.0,44.9,30.01,SE,135,0.0,0.0,96,0.00,,,0.00,Wunderground v.1.15,2013-09-30 08:44:00,
2013-09-30 04:46:00,46.0,45.2,30.01,SE,135,0.0,0.0,97,0.00,,,0.00,Wunderground v.1.15,2013-09-30 08:46:00,
2013-09-30 04:48:00,46.0,45.2,30.01,SE,135,0.0,0.0,97,0.00,,,0.00,Wunderground v.1.15,2013-09-30 08:48:00,
2013-09-30 04:49:00,46.0,45.2,30.01,SE,135,0.0,0.0,97,0.00,,,0.00,Wunderground v.1.15,2013-09-30 08:49:00,
2013-09-30 04:51:00,46.0,45.2,30.01,SE,135,0.0,0.0,97,0.00,,,0.00,Wunderground v.1.15,2013-09-30 08:51:00,
2013-09-30 04:54:00,46.0,45.2,30.00,SE,135,0.0,0.0,97,0.00,,,0.00,Wunderground v.1.15,2013-09-30 08:54:00,
2013-09-30 04:55:00,46.0,45.2,30.00,SE,135,0.0,0.0,97,0.00,,,0.00,Wunderground v.1.15,2013-09-30 08:55:00,
2013-09-30 04:57:00,46.0,45.2,30.00,SE,135,0.0,0.0,97,0.00,,,0.00,Wunderground v.1.15,2013-09-30 08:57:00,
2013-09-30 04:58:00,46.0,45.2,30.00,SE,135,0.0,0.0,97,0.00,,,0.00,Wunderground v.1.15,2013-09-30 08:58:00,
2013-09-30 04:59:00,46.0,45.2,30.00,SE,135,0.0,0.0,97,0.00,,,0.00,Wunderground v.1.15,2013-09-30 08:59:00,
2013-09-30 05:00:00,46.0,45.2,30.00,SE,135,0.0,0.0,97,0.00,,,0.00,Wunderground v.1.15,2013-09-30 09:00:00,
2013-09-30 05:02:00,46.0,45.2,30.00,SE,135,0.0,0.0,97,0.00,,,0.00,Wunderground v.1.15,2013-09-30 09:02:00,
2013-09-30 05:04:00,45.8,45.0,30.00,SE,135,0.0,0.0,97,0.00,,,0.00,Wunderground v.1.15,2013-09-30 09:04:00,
2013-09-30 05:05:00,45.8,45.0,30.00,SE,135,0.0,0.0,97,0.00,,,0.00,Wunderground v.1.15,2013-09-30 09:05:00,
2013-09-30 05:07:00,45.8,45.0,30.00,SE,135,0.0,0.0,97,0.00,,,0.00,Wunderground v.1.15,2013-09-30 09:07:00,
2013-09-30 05:08:00,45.8,45.0,30.00,SE,135,0.0,0.0,97,0.00,,,0.00,Wunderground v.1.15,2013-09-30 09:08:00,
2013-09-30 05:13:00,45.7,44.9,30.00,SE,135,0.0,0.0,97,0.00,,,0.00,Wunderground v.1.15,2013-09-30 09:13:00,
2013-09-30 05:14:00,45.5,44.7,30.00,SE,135,0.0,0.0,97,0.00,,,0.00,Wunderground v.1.15,2013-09-30 09:14:00,
2013-09-30 05:15:00,45.5,44.7,30.00,SE,135,0.0,0.0,97,0.00,,,0.00,Wunderground v.1.15,2013-09-30 09:15:00,
2013-09-30 05:17:00,45.5,44.7,30.00,SE,135,0.0,0.0,97,0.00,,,0.00,Wunderground v.1.15,2013-09-30 09:17:00,
2013-09-30 05:21:00,45.7,44.9,30.00,SE,135,0.0,0.0,97,0.00,,,0.00,Wunderground v.1.15,2013-09-30 09:21:00,
2013-09-30 05:23:00,45.7,44.9,30.01,SE,135,0.0,0.0,97,0.00,,,0.00,Wunderground v.1.15,2013-09-30 09:23:00,
2013-09-30 05:26:00,45.7,44.9,30.01,SE,135,0.0,0.0,97,0.00,,,0.00,Wunderground v.1.15,2013-09-30 09:26:00,
2013-09-30 05:28:00,45.7,44.9,30.01,SE,135,0.0,0.0,97,0.00,,,0.00,Wunderground v.1.15,2013-09-30 09:28:00,
2013-09-30 05:30:00,45.7,44.9,30.01,SE,135,0.0,0.0,97,0.00,,,0.00,Wunderground v.1.15,2013-09-30 09:30:00,
2013-09-30 05:31:00,45.7,44.9,30.01,SE,135,0.0,0.0,97,0.00,,,0.00,Wunderground v.1.15,2013-09-30 09:31:00,
2013-09-30 05:33:00,45.7,44.9,30.01,SE,135,0.0,0.0,97,0.00,,,0.00,Wunderground v.1.15,2013-09-30 09:33:00,
2013-09-30 05:36:00,45.7,44.9,30.01,SE,135,0.0,0.0,97,0.00,,,0.00,Wunderground v.1.15,2013-09-30 09:36:00,
2013-09-30 05:40:00,45.8,45.0,30.00,SE,135,0.0,0.0,97,0.00,,,0.00,Wunderground v.1.15,2013-09-30 09:40:00,
2013-09-30 05:41:00,45.8,45.0,30.00,SE,135,0.0,1.0,97,0.00,,,0.00,Wunderground v.1.15,2013-09-30 09:41:00,
2013-09-30 05:42:00,45.8,45.0,30.00,SE,135,0.0,1.0,97,0.00,,,0.00,Wunderground v.1.15,2013-09-30 09:42:00,
2013-09-30 05:46:00,46.0,45.2,30.00,SE,135,0.0,1.0,97,0.00,,,0.00,Wunderground v.1.15,2013-09-30 09:46:00,
2013-09-30 05:47:00,46.0,45.2,30.00,SE,135,0.0,1.0,97,0.00,,,0.00,Wunderground v.1.15,2013-09-30 09:47:00,
2013-09-30 05:48:00,46.0,45.2,30.00,SE,135,0.0,1.0,97,0.00,,,0.00,Wunderground v.1.15,2013-09-30 09:48:00,
2013-09-30 05:49:00,46.0,45.2,30.00,SE,135,0.0,1.0,97,0.00,,,0.00,Wunderground v.1.15,2013-09-30 09:49:00,
2013-09-30 05:51:00,46.0,45.2,30.00,SE,135,0.0,0.0,97,0.00,,,0.00,Wunderground v.1.15,2013-09-30 09:51:00,
2013-09-30 05:53:00,46.0,45.2,30.00,SE,135,0.0,0.0,97,0.00,,,0.00,Wunderground v.1.15,2013-09-30 09:53:00,
2013-09-30 05:55:00,46.0,45.2,30.00,SE,135,0.0,0.0,97,0.00,,,0.00,Wunderground v.1.15,2013-09-30 09:55:00,
2013-09-30 05:57:00,46.0,45.2,30.00,SE,135,0.0,0.0,97,0.00,,,0.00,Wunderground v.1.15,2013-09-30 09:57:00,
2013-09-30 05:59:00,46.0,45.2,30.00,SE,135,0.0,0.0,97,0.00,,,0.00,Wunderground v.1.15,2013-09-30 09:59:00,
2013-09-30 06:00:00,46.0,45.2,30.00,SE,135,0.0,0.0,97,0.00,,,0.00,Wunderground v.1.15,2013-09-30 10:00:00,
2013-09-30 06:03:00,46.0,45.2,30.00,SE,135,0.0,0.0,97,0.00,,,0.00,Wunderground v.1.15,2013-09-30 10:03:00,
2013-09-30 06:07:00,46.0,45.2,30.00,SE,135,0.0,0.0,97,0.00,,,0.00,Wunderground v.1.15,2013-09-30 10:07:00,
2013-09-30 06:08:00,45.8,45.0,30.01,SE,135,0.0,0.0,97,0.00,,,0.00,Wunderground v.1.15,2013-09-30 10:08:00,
2013-09-30 06:09:00,45.8,45.0,30.01,SE,135,0.0,0.0,97,0.00,,,0.00,Wunderground v.1.15,2013-09-30 10:09:00,
2013-09-30 06:13:00,45.8,45.0,30.01,SE,135,0.0,0.0,97,0.00,,,0.00,Wunderground v.1.15,2013-09-30 10:13:00,
2013-09-30 06:14:00,45.8,45.0,30.01,SE,135,0.0,0.0,97,0.00,,,0.00,Wunderground v.1.15,2013-09-30 10:14:00,
2013-09-30 06:15:00,45.8,45.0,30.01,SE,135,0.0,0.0,97,0.00,,,0.00,Wunderground v.1.15,2013-09-30 10:15:00,
2013-09-30 06:16:00,45.8,45.0,30.01,SE,135,0.0,0.0,97,0.00,,,0.00,Wunderground v.1.15,2013-09-30 10:16:00,
2013-09-30 06:19:00,45.8,45.0,30.01,SE,135,0.0,0.0,97,0.00,,,0.00,Wunderground v.1.15,2013-09-30 10:19:00,
2013-09-30 06:20:00,45.8,45.0,30.01,SE,135,0.0,0.0,97,0.00,,,0.00,Wunderground v.1.15,2013-09-30 10:20:00,
2013-09-30 06:22:00,45.8,45.0,30.01,SE,135,0.0,0.0,97,0.00,,,0.00,Wunderground v.1.15,2013-09-30 10:22:00,
2013-09-30 06:26:00,45.8,45.0,30.03,SE,135,0.0,0.0,97,0.00,,,0.00,Wunderground v.1.15,2013-09-30 10:26:00,
2013-09-30 06:27:00,45.8,45.0,30.03,SE,135,0.0,0.0,97,0.00,,,0.00,Wunderground v.1.15,2013-09-30 10:27:00,
2013-09-30 06:29:00,45.8,45.0,30.03,SE,135,0.0,0.0,97,0.00,,,0.00,Wunderground v.1.15,2013-09-30 10:29:00,
2013-09-30 06:31:00,45.8,45.0,30.03,SE,135,0.0,0.0,97,0.00,,,0.00,Wunderground v.1.15,2013-09-30 10:31:00,
2013-09-30 06:33:00,45.8,45.0,30.03,SE,135,0.0,0.0,97,0.00,,,0.00,Wunderground v.1.15,2013-09-30 10:33:00,
2013-09-30 06:36:00,45.8,45.3,30.03,SE,135,0.0,0.0,98,0.00,,,0.00,Wunderground v.1.15,2013-09-30 10:36:00,
2013-09-30 06:39:00,45.8,45.3,30.03,SE,135,0.0,0.0,98,0.00,,,0.00,Wunderground v.1.15,2013-09-30 10:39:00,
2013-09-30 06:40:00,45.8,45.3,30.03,SE,135,0.0,0.0,98,0.00,,,0.00,Wunderground v.1.15,2013-09-30 10:40:00,
2013-09-30 06:44:00,46.0,45.5,30.03,SE,135,0.0,0.0,98,0.00,,,0.00,Wunderground v.1.15,2013-09-30 10:44:00,
2013-09-30 06:46:00,46.0,45.5,30.03,SE,135,0.0,0.0,98,0.00,,,0.00,Wunderground v.1.15,2013-09-30 10:46:00,
2013-09-30 06:48:00,46.0,45.5,30.03,SE,135,0.0,0.0,98,0.00,,,0.00,Wunderground v.1.15,2013-09-30 10:48:00,
2013-09-30 06:50:00,46.0,45.5,30.03,SE,135,0.0,0.0,98,0.00,,,0.00,Wunderground v.1.15,2013-09-30 10:50:00,
2013-09-30 06:51:00,46.0,45.5,30.03,SE,135,0.0,0.0,98,0.00,,,0.00,Wunderground v.1.15,2013-09-30 10:51:00,
2013-09-30 06:55:00,46.0,45.5,30.03,SE,135,0.0,0.0,98,0.00,,,0.00,Wunderground v.1.15,2013-09-30 10:55:00,
2013-09-30 06:57:00,46.0,45.5,30.03,SE,135,0.0,0.0,98,0.00,,,0.00,Wunderground v.1.15,2013-09-30 10:57:00,
2013-09-30 06:58:00,46.0,45.5,30.03,SE,135,0.0,0.0,98,0.00,,,0.00,Wunderground v.1.15,2013-09-30 10:58:00,
2013-09-30 06:59:00,46.0,45.2,30.03,SE,135,0.0,0.0,97,0.00,,,0.00,Wunderground v.1.15,2013-09-30 10:59:00,
2013-09-30 07:03:00,45.8,45.0,30.03,SE,135,0.0,0.0,97,0.00,,,0.00,Wunderground v.1.15,2013-09-30 11:03:00,
2013-09-30 07:06:00,45.8,45.0,30.03,SE,135,0.0,0.0,97,0.00,,,0.00,Wunderground v.1.15,2013-09-30 11:06:00,
2013-09-30 07:07:00,45.8,45.0,30.03,SE,135,0.0,0.0,97,0.00,,,0.00,Wunderground v.1.15,2013-09-30 11:07:00,
2013-09-30 07:12:00,45.7,44.9,30.04,SE,135,0.0,0.0,97,0.00,,,0.00,Wunderground v.1.15,2013-09-30 11:12:00,
2013-09-30 07:13:00,45.7,45.2,30.04,SE,135,0.0,0.0,98,0.00,,,0.00,Wunderground v.1.15,2013-09-30 11:13:00,
2013-09-30 07:15:00,45.7,45.2,30.04,SE,135,0.0,0.0,98,0.00,,,0.00,Wunderground v.1.15,2013-09-30 11:15:00,
2013-09-30 07:17:00,45.7,45.2,30.04,SE,135,0.0,0.0,98,0.00,,,0.00,Wunderground v.1.15,2013-09-30 11:17:00,
2013-09-30 07:20:00,45.7,45.2,30.04,SE,135,0.0,0.0,98,0.00,,,0.00,Wunderground v.1.15,2013-09-30 11:20:00,
2013-09-30 07:22:00,45.7,45.2,30.04,SE,135,0.0,0.0,98,0.00,,,0.00,Wunderground v.1.15,2013-09-30 11:22:00,
2013-09-30 07:23:00,45.7,45.2,30.05,SE,135,0.0,0.0,98,0.00,,,0.00,Wunderground v.1.15,2013-09-30 11:23:00,
2013-09-30 07:28:00,45.7,45.2,30.05,SE,135,0.0,0.0,98,0.00,,,0.00,Wunderground v.1.15,2013-09-30 11:28:00,
2013-09-30 07:30:00,45.7,45.2,30.05,SE,135,0.0,0.0,98,0.00,,,0.00,Wunderground v.1.15,2013-09-30 11:30:00,
2013-09-30 07:33:00,45.5,45.0,30.05,SE,135,0.0,0.0,98,0.00,,,0.00,Wunderground v.1.15,2013-09-30 11:33:00,
2013-09-30 07:36:00,45.5,45.0,30.05,SE,135,0.0,0.0,98,0.00,,,0.00,Wunderground v.1.15,2013-09-30 11:36:00,
2013-09-30 07:37:00,45.5,45.0,30.05,SE,135,0.0,0.0,98,0.00,,,0.00,Wunderground v.1.15,2013-09-30 11:37:00,
2013-09-30 07:38:00,45.5,45.0,30.05,SE,135,0.0,0.0,98,0.00,,,0.00,Wunderground v.1.15,2013-09-30 11:38:00,
2013-09-30 07:41:00,45.5,45.0,30.05,SE,135,0.0,0.0,98,0.00,,,0.00,Wunderground v.1.15,2013-09-30 11:41:00,
2013-09-30 07:42:00,45.5,45.0,30.05,SE,135,0.0,0.0,98,0.00,,,0.00,Wunderground v.1.15,2013-09-30 11:42:00,
2013-09-30 07:44:00,45.5,45.0,30.05,SE,135,0.0,0.0,98,0.00,,,0.00,Wunderground v.1.15,2013-09-30 11:44:00,
2013-09-30 07:46:00,45.5,45.0,30.05,SE,135,0.0,0.0,98,0.00,,,0.00,Wunderground v.1.15,2013-09-30 11:46:00,
2013-09-30 07:47:00,45.5,45.0,30.05,SE,135,0.0,0.0,98,0.00,,,0.00,Wunderground v.1.15,2013-09-30 11:47:00,
2013-09-30 07:51:00,45.7,45.2,30.05,SE,135,0.0,0.0,98,0.00,,,0.00,Wunderground v.1.15,2013-09-30 11:51:00,
2013-09-30 07:52:00,45.7,45.2,30.05,SE,135,0.0,0.0,98,0.00,,,0.00,Wunderground v.1.15,2013-09-30 11:52:00,
2013-09-30 07:54:00,45.7,45.2,30.05,SE,135,0.0,0.0,98,0.00,,,0.00,Wunderground v.1.15,2013-09-30 11:54:00,
2013-09-30 07:56:00,45.7,45.2,30.05,SE,135,0.0,0.0,98,0.00,,,0.00,Wunderground v.1.15,2013-09-30 11:56:00,
2013-09-30 07:58:00,45.7,45.2,30.05,SE,135,0.0,0.0,98,0.00,,,0.00,Wunderground v.1.15,2013-09-30 11:58:00,
2013-09-30 08:02:00,45.8,45.3,30.05,SE,135,0.0,0.0,98,0.00,,,0.00,Wunderground v.1.15,2013-09-30 12:02:00,
2013-09-30 08:03:00,45.8,45.3,30.05,SE,135,0.0,0.0,98,0.00,,,0.00,Wunderground v.1.15,2013-09-30 12:03:00,
2013-09-30 08:04:00,45.8,45.3,30.05,SE,135,0.0,0.0,98,0.00,,,0.00,Wunderground v.1.15,2013-09-30 12:04:00,
2013-09-30 08:05:00,46.0,45.5,30.05,SE,135,0.0,0.0,98,0.00,,,0.00,Wunderground v.1.15,2013-09-30 12:05:00,
2013-09-30 08:08:00,46.1,45.6,30.05,SE,135,0.0,1.0,98,0.00,,,0.00,Wunderground v.1.15,2013-09-30 12:08:00,
2013-09-30 08:09:00,46.1,45.6,30.05,SE,135,0.0,1.0,98,0.00,,,0.00,Wunderground v.1.15,2013-09-30 12:09:00,
2013-09-30 08:11:00,46.2,45.7,30.05,SE,135,0.0,0.0,98,0.00,,,0.00,Wunderground v.1.15,2013-09-30 12:11:00,
2013-09-30 08:13:00,46.4,45.9,30.05,SE,135,0.0,0.0,98,0.00,,,0.00,Wunderground v.1.15,2013-09-30 12:13:00,
2013-09-30 08:14:00,46.4,45.9,30.05,SE,135,0.0,0.0,98,0.00,,,0.00,Wunderground v.1.15,2013-09-30 12:14:00,
2013-09-30 08:15:00,46.4,45.9,30.05,SE,135,0.0,0.0,98,0.00,,,0.00,Wunderground v.1.15,2013-09-30 12:15:00,
2013-09-30 08:19:00,46.7,46.2,30.05,SE,135,0.0,1.0,98,0.00,,,0.00,Wunderground v.1.15,2013-09-30 12:19:00,
2013-09-30 08:20:00,46.8,46.3,30.05,SE,135,0.0,0.0,98,0.00,,,0.00,Wunderground v.1.15,2013-09-30 12:20:00,
2013-09-30 08:21:00,46.8,46.3,30.05,SE,135,0.0,0.0,98,0.00,,,0.00,Wunderground v.1.15,2013-09-30 12:21:00,
2013-09-30 08:26:00,47.3,46.8,30.05,SE,135,0.0,0.0,98,0.00,,,0.00,Wunderground v.1.15,2013-09-30 12:26:00,
2013-09-30 08:27:00,47.3,46.8,30.05,SE,135,0.0,0.0,98,0.00,,,0.00,Wunderground v.1.15,2013-09-30 12:27:00,
2013-09-30 08:30:00,47.6,47.1,30.05,SE,135,0.0,0.0,98,0.00,,,0.00,Wunderground v.1.15,2013-09-30 12:30:00,
2013-09-30 08:31:00,47.6,47.1,30.05,SE,135,0.0,0.0,98,0.00,,,0.00,Wunderground v.1.15,2013-09-30 12:31:00,
2013-09-30 08:33:00,47.7,47.2,30.05,SE,135,0.0,0.0,98,0.00,,,0.00,Wunderground v.1.15,2013-09-30 12:33:00,
2013-09-30 08:34:00,47.9,47.4,30.05,SE,135,0.0,0.0,98,0.00,,,0.00,Wunderground v.1.15,2013-09-30 12:34:00,
2013-09-30 08:37:00,48.2,47.7,30.05,SE,135,0.0,0.0,98,0.00,,,0.00,Wunderground v.1.15,2013-09-30 12:37:00,
2013-09-30 08:38:00,48.5,48.0,30.05,SE,135,0.0,0.0,98,0.00,,,0.00,Wunderground v.1.15,2013-09-30 12:38:00,
2013-09-30 08:40:00,48.6,48.1,30.05,SE,135,0.0,0.0,98,0.00,,,0.00,Wunderground v.1.15,2013-09-30 12:40:00,
2013-09-30 08:43:00,48.9,48.4,30.05,SE,135,0.0,0.0,98,0.00,,,0.00,Wunderground v.1.15,2013-09-30 12:43:00,
2013-09-30 08:44:00,49.1,48.6,30.05,SE,135,0.0,0.0,98,0.00,,,0.00,Wunderground v.1.15,2013-09-30 12:44:00,
2013-09-30 08:46:00,49.2,48.7,30.05,SE,135,0.0,0.0,98,0.00,,,0.00,Wunderground v.1.15,2013-09-30 12:46:00,
2013-09-30 08:48:00,49.5,49.0,30.05,SE,135,0.0,0.0,98,0.00,,,0.00,Wunderground v.1.15,2013-09-30 12:48:00,
2013-09-30 08:51:00,49.8,49.3,30.05,SE,135,0.0,0.0,98,0.00,,,0.00,Wunderground v.1.15,2013-09-30 12:51:00,
2013-09-30 08:54:00,50.2,49.7,30.05,SE,135,0.0,0.0,98,0.00,,,0.00,Wunderground v.1.15,2013-09-30 12:54:00,
2013-09-30 08:55:00,50.4,49.9,30.05,SE,135,0.0,0.0,98,0.00,,,0.00,Wunderground v.1.15,2013-09-30 12:55:00,
2013-09-30 08:56:00,50.5,50.0,30.05,SE,135,0.0,0.0,98,0.00,,,0.00,Wunderground v.1.15,2013-09-30 12:56:00,
2013-09-30 08:58:00,50.7,50.2,30.05,SE,135,0.0,0.0,98,0.00,,,0.00,Wunderground v.1.15,2013-09-30 12:58:00,
2013-09-30 09:01:00,51.1,50.6,30.05,SE,135,0.0,0.0,98,0.00,,,0.00,Wunderground v.1.15,2013-09-30 13:01:00,
2013-09-30 09:03:00,51.4,50.9,30.05,SE,135,0.0,0.0,98,0.00,,,0.00,Wunderground v.1.15,2013-09-30 13:03:00,
2013-09-30 09:04:00,51.6,51.1,30.05,SE,135,0.0,0.0,98,0.00,,,0.00,Wunderground v.1.15,2013-09-30 13:04:00,
2013-09-30 09:05:00,51.7,51.2,30.05,SE,135,0.0,0.0,98,0.00,,,0.00,Wunderground v.1.15,2013-09-30 13:05:00,
2013-09-30 09:07:00,52.0,51.5,30.05,SE,135,0.0,0.0,98,0.00,,,0.00,Wunderground v.1.15,2013-09-30 13:07:00,
2013-09-30 09:09:00,52.5,52.0,30.04,SE,135,0.0,0.0,98,0.00,,,0.00,Wunderground v.1.15,2013-09-30 13:09:00,
2013-09-30 09:12:00,52.9,52.4,30.04,SE,135,0.0,0.0,98,0.00,,,0.00,Wunderground v.1.15,2013-09-30 13:12:00,
2013-09-30 09:13:00,52.9,52.4,30.04,SE,135,0.0,0.0,98,0.00,,,0.00,Wunderground v.1.15,2013-09-30 13:13:00,
2013-09-30 09:15:00,53.2,52.7,30.04,SE,135,0.0,0.0,98,0.00,,,0.00,Wunderground v.1.15,2013-09-30 13:15:00,
2013-09-30 09:17:00,53.3,52.8,30.04,SE,135,0.0,0.0,98,0.00,,,0.00,Wunderground v.1.15,2013-09-30 13:17:00,
2013-09-30 09:21:00,53.6,53.0,30.04,SE,135,0.0,0.0,98,0.00,,,0.00,Wunderground v.1.15,2013-09-30 13:21:00,
2013-09-30 09:22:00,53.8,53.2,30.04,SE,135,0.0,0.0,98,0.00,,,0.00,Wunderground v.1.15,2013-09-30 13:22:00,
2013-09-30 09:24:00,53.9,53.3,30.04,SE,135,0.0,0.0,98,0.00,,,0.00,Wunderground v.1.15,2013-09-30 13:24:00,
2013-09-30 09:26:00,54.1,53.3,30.04,SE,135,0.0,0.0,97,0.00,,,0.00,Wunderground v.1.15,2013-09-30 13:26:00,
2013-09-30 09:27:00,54.2,53.4,30.04,SE,135,0.0,1.0,97,0.00,,,0.00,Wunderground v.1.15,2013-09-30 13:27:00,
2013-09-30 09:28:00,54.2,53.4,30.04,SE,135,0.0,1.0,97,0.00,,,0.00,Wunderground v.1.15,2013-09-30 13:28:00,
2013-09-30 09:31:00,54.5,53.7,30.04,SE,135,0.0,0.0,97,0.00,,,0.00,Wunderground v.1.15,2013-09-30 13:31:00,
2013-09-30 09:32:00,54.5,53.7,30.04,SE,135,0.0,0.0,97,0.00,,,0.00,Wunderground v.1.15,2013-09-30 13:32:00,
2013-09-30 09:34:00,54.7,53.6,30.04,SE,135,0.0,1.0,96,0.00,,,0.00,Wunderground v.1.15,2013-09-30 13:34:00,
2013-09-30 09:38:00,55.1,54.0,30.03,SE,135,0.0,1.0,96,0.00,,,0.00,Wunderground v.1.15,2013-09-30 13:38:00,
2013-09-30 09:40:00,55.3,53.9,30.03,SE,135,0.0,0.0,95,0.00,,,0.00,Wunderground v.1.15,2013-09-30 13:40:00,
2013-09-30 09:41:00,55.4,54.0,30.03,ESE,102,0.0,2.0,95,0.00,,,0.00,Wunderground v.1.15,2013-09-30 13:41:00,
2013-09-30 09:43:00,55.6,54.2,30.03,East,99,0.0,2.0,95,0.00,,,0.00,Wunderground v.1.15,2013-09-30 13:43:00,
2013-09-30 09:48:00,56.0,54.0,30.03,East,97,0.0,2.0,93,0.00,,,0.00,Wunderground v.1.15,2013-09-30 13:48:00,
2013-09-30 09:49:00,56.0,54.0,30.03,East,97,0.0,2.0,93,0.00,,,0.00,Wunderground v.1.15,2013-09-30 13:49:00,
2013-09-30 09:50:00,56.2,54.2,30.03,East,97,0.0,0.0,93,0.00,,,0.00,Wunderground v.1.15,2013-09-30 13:50:00,
2013-09-30 09:53:00,56.3,54.0,30.03,East,97,0.0,0.0,92,0.00,,,0.00,Wunderground v.1.15,2013-09-30 13:53:00,
2013-09-30 09:55:00,56.5,54.2,30.03,East,97,0.0,1.0,92,0.00,,,0.00,Wunderground v.1.15,2013-09-30 13:55:00,
2013-09-30 09:58:00,56.6,53.7,30.03,East,97,0.0,1.0,90,0.00,,,0.00,Wunderground v.1.15,2013-09-30 13:58:00,
2013-09-30 10:00:00,56.7,53.8,30.03,East,97,0.0,0.0,90,0.00,,,0.00,Wunderground v.1.15,2013-09-30 14:00:00,
2013-09-30 10:03:00,57.0,53.8,30.03,East,97,0.0,0.0,89,0.00,,,0.00,Wunderground v.1.15,2013-09-30 14:03:00,
2013-09-30 10:06:00,57.2,53.7,30.03,East,97,0.0,0.0,88,0.00,,,0.00,Wunderground v.1.15,2013-09-30 14:06:00,
2013-09-30 10:08:00,57.3,53.5,30.03,East,97,0.0,0.0,87,0.00,,,0.00,Wunderground v.1.15,2013-09-30 14:08:00,
2013-09-30 10:09:00,57.3,53.5,30.03,East,97,0.0,0.0,87,0.00,,,0.00,Wunderground v.1.15,2013-09-30 14:09:00,
2013-09-30 10:11:00,57.6,53.8,30.03,East,97,0.0,0.0,87,0.00,,,0.00,Wunderground v.1.15,2013-09-30 14:11:00,
2013-09-30 10:12:00,57.6,53.8,30.03,East,97,0.0,0.0,87,0.00,,,0.00,Wunderground v.1.15,2013-09-30 14:12:00,
2013-09-30 10:15:00,58.1,53.6,30.03,East,97,0.0,0.0,85,0.00,,,0.00,Wunderground v.1.15,2013-09-30 14:15:00,
2013-09-30 10:16:00,58.3,53.8,30.03,East,97,0.0,0.0,85,0.00,,,0.00,Wunderground v.1.15,2013-09-30 14:16:00,
2013-09-30 10:18:00,58.6,53.8,30.03,East,97,0.0,1.0,84,0.00,,,0.00,Wunderground v.1.15,2013-09-30 14:18:00,
2013-09-30 10:20:00,59.0,53.8,30.03,East,96,0.0,1.0,83,0.00,,,0.00,Wunderground v.1.15,2013-09-30 14:20:00,
2013-09-30 10:21:00,59.2,53.7,30.03,East,97,0.0,1.0,82,0.00,,,0.00,Wunderground v.1.15,2013-09-30 14:21:00,
2013-09-30 10:23:00,59.6,53.8,30.02,East,97,0.0,1.0,81,0.00,,,0.00,Wunderground v.1.15,2013-09-30 14:23:00,
2013-09-30 10:26:00,60.1,53.9,30.02,East,97,0.0,1.0,80,0.00,,,0.00,Wunderground v.1.15,2013-09-30 14:26:00,
2013-09-30 10:28:00,60.4,53.5,30.02,East,96,0.0,1.0,78,0.00,,,0.00,Wunderground v.1.15,2013-09-30 14:28:00,
2013-09-30 10:32:00,60.9,53.6,30.02,East,96,0.0,0.0,77,0.00,,,0.00,Wunderground v.1.15,2013-09-30 14:32:00,
2013-09-30 10:33:00,61.0,53.7,30.02,East,94,0.0,0.0,77,0.00,,,0.00,Wunderground v.1.15,2013-09-30 14:33:00,
2013-09-30 10:35:00,61.3,53.3,30.02,East,94,0.0,0.0,75,0.00,,,0.00,Wunderground v.1.15,2013-09-30 14:35:00,
2013-09-30 10:37:00,61.5,53.5,30.02,East,94,0.0,0.0,75,0.00,,,0.00,Wunderground v.1.15,2013-09-30 14:37:00,
2013-09-30 10:40:00,62.0,54.0,30.02,East,94,0.0,0.0,75,0.00,,,0.00,Wunderground v.1.15,2013-09-30 14:40:00,
2013-09-30 10:44:00,62.6,54.2,30.02,East,94,0.0,0.0,74,0.00,,,0.00,Wunderground v.1.15,2013-09-30 14:44:00,
2013-09-30 10:45:00,62.9,54.1,30.02,East,94,0.0,0.0,73,0.00,,,0.00,Wunderground v.1.15,2013-09-30 14:45:00,
2013-09-30 10:49:00,63.4,54.2,30.02,East,94,0.0,1.0,72,0.00,,,0.00,Wunderground v.1.15,2013-09-30 14:49:00,
2013-09-30 10:50:00,63.4,53.8,30.02,East,94,0.0,0.0,71,0.00,,,0.00,Wunderground v.1.15,2013-09-30 14:50:00,
2013-09-30 10:51:00,63.4,53.4,30.02,East,94,0.0,0.0,70,0.00,,,0.00,Wunderground v.1.15,2013-09-30 14:51:00,
2013-09-30 10:55:00,63.9,53.9,30.01,East,94,0.0,1.0,70,0.00,,,0.00,Wunderground v.1.15,2013-09-30 14:55:00,
2013-09-30 10:56:00,64.0,54.0,30.01,East,94,0.0,1.0,70,0.00,,,0.00,Wunderground v.1.15,2013-09-30 14:56:00,
2013-09-30 10:57:00,64.0,54.0,30.01,East,94,0.0,1.0,70,0.00,,,0.00,Wunderground v.1.15,2013-09-30 14:57:00,
2013-09-30 10:58:00,64.2,53.4,30.01,East,94,0.0,1.0,68,0.00,,,0.00,Wunderground v.1.15,2013-09-30 14:58:00,
2013-09-30 11:02:00,64.5,54.1,30.01,East,94,0.0,0.0,69,0.00,,,0.00,Wunderground v.1.15,2013-09-30 15:02:00,
2013-09-30 11:03:00,64.7,53.9,30.01,East,94,0.0,0.0,68,0.00,,,0.00,Wunderground v.1.15,2013-09-30 15:03:00,
2013-09-30 11:06:00,65.2,54.4,30.01,East,94,0.0,1.0,68,0.00,,,0.00,Wunderground v.1.15,2013-09-30 15:06:00,
2013-09-30 11:07:00,65.3,54.1,30.01,East,94,0.0,1.0,67,0.00,,,0.00,Wunderground v.1.15,2013-09-30 15:07:00,
2013-09-30 11:08:00,65.5,54.7,30.01,East,94,0.0,1.0,68,0.00,,,0.00,Wunderground v.1.15,2013-09-30 15:08:00,
2013-09-30 11:10:00,65.8,54.5,30.01,East,94,0.0,0.0,67,0.00,,,0.00,Wunderground v.1.15,2013-09-30 15:10:00,
2013-09-30 11:13:00,66.1,54.4,30.01,ESE,120,1.0,4.0,66,0.00,,,0.00,Wunderground v.1.15,2013-09-30 15:13:00,
2013-09-30 11:15:00,66.0,54.3,30.01,SE,134,1.0,4.0,66,0.00,,,0.00,Wunderground v.1.15,2013-09-30 15:15:00,
2013-09-30 11:18:00,66.1,54.8,30.01,SE,134,1.0,4.0,67,0.00,,,0.00,Wunderground v.1.15,2013-09-30 15:18:00,
2013-09-30 11:20:00,66.3,54.2,30.01,SE,135,1.0,1.0,65,0.00,,,0.00,Wunderground v.1.15,2013-09-30 15:20:00,
2013-09-30 11:22:00,66.4,53.8,30.01,SE,135,1.0,1.0,64,0.00,,,0.00,Wunderground v.1.15,2013-09-30 15:22:00,
2013-09-30 11:23:00,66.6,54.0,30.01,SE,135,1.0,1.0,64,0.00,,,0.00,Wunderground v.1.15,2013-09-30 15:23:00,
2013-09-30 11:25:00,66.9,54.7,30.01,SE,135,0.0,1.0,65,0.00,,,0.00,Wunderground v.1.15,2013-09-30 15:25:00,
2013-09-30 11:29:00,67.1,54.5,30.01,SE,136,0.0,2.0,64,0.00,,,0.00,Wunderground v.1.15,2013-09-30 15:29:00,
2013-09-30 11:30:00,67.3,54.7,30.01,South,184,0.0,5.0,64,0.00,,,0.00,Wunderground v.1.15,2013-09-30 15:30:00,
2013-09-30 11:32:00,67.4,54.8,30.01,South,184,1.0,5.0,64,0.00,,,0.00,Wunderground v.1.15,2013-09-30 15:32:00,
2013-09-30 11:35:00,67.9,54.4,30.01,SE,144,1.0,5.0,62,0.00,,,0.00,Wunderground v.1.15,2013-09-30 15:35:00,
2013-09-30 11:36:00,68.1,54.1,30.01,SE,144,1.0,5.0,61,0.00,,,0.00,Wunderground v.1.15,2013-09-30 15:36:00,
2013-09-30 11:37:00,68.1,53.7,30.01,SE,144,1.0,5.0,60,0.00,,,0.00,Wunderground v.1.15,2013-09-30 15:37:00,
2013-09-30 11:39:00,68.6,55.5,30.00,SE,145,1.0,5.0,63,0.00,,,0.00,Wunderground v.1.15,2013-09-30 15:39:00,
2013-09-30 11:40:00,68.8,55.2,30.00,SE,144,1.0,1.0,62,0.00,,,0.00,Wunderground v.1.15,2013-09-30 15:40:00,
2013-09-30 11:41:00,68.9,54.4,30.00,SE,144,1.0,1.0,60,0.00,,,0.00,Wunderground v.1.15,2013-09-30 15:41:00,
2013-09-30 11:42:00,69.1,54.6,30.00,SE,138,1.0,3.0,60,0.00,,,0.00,Wunderground v.1.15,2013-09-30 15:42:00,
2013-09-30 11:45:00,69.4,55.8,30.00,SE,136,1.0,4.0,62,0.00,,,0.00,Wunderground v.1.15,2013-09-30 15:45:00,
2013-09-30 11:47:00,69.6,54.2,30.00,SE,136,1.0,4.0,58,0.00,,,0.00,Wunderground v.1.15,2013-09-30 15:47:00,
2013-09-30 11:48:00,69.8,53.9,30.00,SE,136,1.0,4.0,57,0.00,,,0.00,Wunderground v.1.15,2013-09-30 15:48:00,
2013-09-30 11:50:00,69.8,54.8,30.00,SE,136,0.0,0.0,59,0.00,,,0.00,Wunderground v.1.15,2013-09-30 15:50:00,
2013-09-30 11:51:00,69.9,55.4,30.00,SE,136,0.0,0.0,60,0.00,,,0.00,Wunderground v.1.15,2013-09-30 15:51:00,
2013-09-30 11:54:00,70.1,55.1,29.99,SE,137,0.0,0.0,59,0.00,,,0.00,Wunderground v.1.15,2013-09-30 15:54:00,
2013-09-30 11:55:00,70.3,55.3,29.99,SE,137,0.0,4.0,59,0.00,,,0.00,Wunderground v.1.15,2013-09-30 15:55:00,
2013-09-30 11:56:00,70.3,55.3,29.99,SE,137,1.0,4.0,59,0.00,,,0.00,Wunderground v.1.15,2013-09-30 15:56:00,
2013-09-30 11:57:00,70.3,54.3,29.99,SSE,156,1.0,4.0,57,0.00,,,0.00,Wunderground v.1.15,2013-09-30 15:57:00,
2013-09-30 11:59:00,70.4,54.4,29.99,SSE,156,1.0,4.0,57,0.00,,,0.00,Wunderground v.1.15,2013-09-30 15:59:00,
2013-09-30 12:02:00,70.6,55.6,29.99,SSE,155,1.0,2.0,59,0.00,,,0.00,Wunderground v.1.15,2013-09-30 16:02:00,
2013-09-30 12:03:00,70.6,55.1,29.99,SSE,155,1.0,2.0,58,0.00,,,0.00,Wunderground v.1.15,2013-09-30 16:03:00,
2013-09-30 12:05:00,70.8,54.3,29.99,North,11,1.0,2.0,56,0.00,,,0.00,Wunderground v.1.15,2013-09-30 16:05:00,
2013-09-30 12:06:00,70.8,54.3,29.99,North,11,1.0,2.0,56,0.00,,,0.00,Wunderground v.1.15,2013-09-30 16:06:00,
2013-09-30 12:07:00,70.8,55.3,29.99,WNW,294,1.0,2.0,58,0.00,,,0.00,Wunderground v.1.15,2013-09-30 16:07:00,
2013-09-30 12:09:00,70.9,55.4,29.99,WNW,300,1.0,2.0,58,0.00,,,0.00,Wunderground v.1.15,2013-09-30 16:09:00,
2013-09-30 12:11:00,70.9,54.9,29.99,NW,320,1.0,1.0,57,0.00,,,0.00,Wunderground v.1.15,2013-09-30 16:11:00,
2013-09-30 12:13:00,71.3,56.2,29.99,WNW,303,1.0,1.0,59,0.00,,,0.00,Wunderground v.1.15,2013-09-30 16:13:00,
2013-09-30 12:17:00,71.8,54.8,29.99,WNW,302,0.0,1.0,55,0.00,,,0.00,Wunderground v.1.15,2013-09-30 16:17:00,
2013-09-30 12:18:00,72.0,54.4,29.99,WNW,302,1.0,1.0,54,0.00,,,0.00,Wunderground v.1.15,2013-09-30 16:18:00,
2013-09-30 12:20:00,72.1,55.0,29.99,WNW,303,0.0,0.0,55,0.00,,,0.00,Wunderground v.1.15,2013-09-30 16:20:00,
2013-09-30 12:22:00,72.1,54.0,29.99,NW,304,0.0,0.0,53,0.00,,,0.00,Wunderground v.1.15,2013-09-30 16:22:00,
2013-09-30 12:25:00,72.3,54.7,29.99,NW,304,0.0,0.0,54,0.00,,,0.00,Wunderground v.1.15,2013-09-30 16:25:00,
2013-09-30 12:28:00,72.5,54.4,29.99,SSW,194,1.0,3.0,53,0.00,,,0.00,Wunderground v.1.15,2013-09-30 16:28:00,
2013-09-30 12:30:00,72.3,54.2,29.99,SE,139,1.0,1.0,53,0.00,,,0.00,Wunderground v.1.15,2013-09-30 16:30:00,
2013-09-30 12:31:00,72.1,54.0,29.99,SE,139,1.0,1.0,53,0.00,,,0.00,Wunderground v.1.15,2013-09-30 16:31:00,
2013-09-30 12:35:00,71.6,53.0,29.99,SSW,198,2.0,6.0,52,0.00,,,0.00,Wunderground v.1.15,2013-09-30 16:35:00,
2013-09-30 12:37:00,71.5,54.0,29.99,SSW,198,2.0,6.0,54,0.00,,,0.00,Wunderground v.1.15,2013-09-30 16:37:00,
2013-09-30 12:38:00,71.5,53.5,29.98,SSW,202,2.0,6.0,53,0.00,,,0.00,Wunderground v.1.15,2013-09-30 16:38:00,
2013-09-30 12:40:00,71.3,54.8,29.98,SSW,203,2.0,2.0,56,0.00,,,0.00,Wunderground v.1.15,2013-09-30 16:40:00,
2013-09-30 12:42:00,71.3,54.3,29.98,SSW,203,2.0,2.0,55,0.00,,,0.00,Wunderground v.1.15,2013-09-30 16:42:00,
2013-09-30 12:43:00,71.5,54.0,29.98,SSW,203,2.0,2.0,54,0.00,,,0.00,Wunderground v.1.15,2013-09-30 16:43:00,
2013-09-30 12:45:00,71.8,53.2,29.98,SSW,203,1.0,2.0,52,0.00,,,0.00,Wunderground v.1.15,2013-09-30 16:45:00,
2013-09-30 12:50:00,72.7,55.6,29.98,SW,232,0.0,0.0,55,0.00,,,0.00,Wunderground v.1.15,2013-09-30 16:50:00,
2013-09-30 12:55:00,73.3,55.1,29.98,SW,232,0.0,1.0,53,0.00,,,0.00,Wunderground v.1.15,2013-09-30 16:55:00,
2013-09-30 12:57:00,73.5,54.3,29.98,SW,232,0.0,1.0,51,0.00,,,0.00,Wunderground v.1.15,2013-09-30 16:57:00,
2013-09-30 13:00:00,73.9,53.5,29.98,North,355,1.0,1.0,49,0.00,,,0.00,Wunderground v.1.15,2013-09-30 17:00:00,
2013-09-30 13:03:00,74.0,54.7,29.98,North,355,1.0,2.0,51,0.00,,,0.00,Wunderground v.1.15,2013-09-30 17:03:00,
2013-09-30 13:06:00,74.0,53.1,29.98,North,360,1.0,2.0,48,0.00,,,0.00,Wunderground v.1.15,2013-09-30 17:06:00,
2013-09-30 13:08:00,74.0,53.6,29.97,North,360,1.0,2.0,49,0.00,,,0.00,Wunderground v.1.15,2013-09-30 17:08:00,
2013-09-30 13:10:00,74.0,53.6,29.97,WNW,293,0.0,0.0,49,0.00,,,0.00,Wunderground v.1.15,2013-09-30 17:10:00,
2013-09-30 13:11:00,74.2,53.8,29.97,WNW,293,0.0,0.0,49,0.00,,,0.00,Wunderground v.1.15,2013-09-30 17:11:00,
2013-09-30 13:13:00,74.2,53.2,29.97,WNW,292,0.0,0.0,48,0.00,,,0.00,Wunderground v.1.15,2013-09-30 17:13:00,
2013-09-30 13:16:00,74.6,53.6,29.97,WNW,292,0.0,0.0,48,0.00,,,0.00,Wunderground v.1.15,2013-09-30 17:16:00,
2013-09-30 13:17:00,74.6,54.2,29.97,WNW,292,0.0,0.0,49,0.00,,,0.00,Wunderground v.1.15,2013-09-30 17:17:00,
2013-09-30 13:19:00,74.7,53.1,29.97,WNW,292,0.0,0.0,47,0.00,,,0.00,Wunderground v.1.15,2013-09-30 17:19:00,
2013-09-30 13:22:00,74.9,53.9,29.97,WSW,254,0.0,2.0,48,0.00,,,0.00,Wunderground v.1.15,2013-09-30 17:22:00,
2013-09-30 13:23:00,74.9,53.3,29.96,WSW,254,0.0,2.0,47,0.00,,,0.00,Wunderground v.1.15,2013-09-30 17:23:00,
2013-09-30 13:25:00,75.1,52.9,29.96,WSW,254,0.0,2.0,46,0.00,,,0.00,Wunderground v.1.15,2013-09-30 17:25:00,
2013-09-30 13:26:00,75.3,54.3,29.96,WSW,254,0.0,2.0,48,0.00,,,0.00,Wunderground v.1.15,2013-09-30 17:26:00,
2013-09-30 13:28:00,75.4,53.2,29.96,SSE,164,1.0,4.0,46,0.00,,,0.00,Wunderground v.1.15,2013-09-30 17:28:00,
2013-09-30 13:31:00,75.4,54.9,29.96,SSE,162,1.0,1.0,49,0.00,,,0.00,Wunderground v.1.15,2013-09-30 17:31:00,
2013-09-30 13:32:00,75.4,54.3,29.96,SSE,162,1.0,2.0,48,0.00,,,0.00,Wunderground v.1.15,2013-09-30 17:32:00,
2013-09-30 13:33:00,75.6,53.9,29.96,SSE,162,1.0,2.0,47,0.00,,,0.00,Wunderground v.1.15,2013-09-30 17:33:00,
2013-09-30 13:34:00,75.6,53.4,29.96,SSE,162,1.0,2.0,46,0.00,,,0.00,Wunderground v.1.15,2013-09-30 17:34:00,
2013-09-30 13:39:00,75.6,53.9,29.95,SSE,159,1.0,2.0,47,0.00,,,0.00,Wunderground v.1.15,2013-09-30 17:39:00,
2013-09-30 13:40:00,75.6,53.4,29.95,SSE,158,1.0,1.0,46,0.00,,,0.00,Wunderground v.1.15,2013-09-30 17:40:00,
2013-09-30 13:41:00,75.6,53.4,29.95,SSE,158,1.0,1.0,46,0.00,,,0.00,Wunderground v.1.15,2013-09-30 17:41:00,
2013-09-30 13:45:00,75.1,52.9,29.95,South,172,2.0,5.0,46,0.00,,,0.00,Wunderground v.1.15,2013-09-30 17:45:00,
2013-09-30 13:46:00,75.1,52.9,29.95,South,172,2.0,5.0,46,0.00,,,0.00,Wunderground v.1.15,2013-09-30 17:46:00,
2013-09-30 13:48:00,75.1,51.7,29.95,South,171,2.0,5.0,44,0.00,,,0.00,Wunderground v.1.15,2013-09-30 17:48:00,
2013-09-30 13:50:00,75.3,53.1,29.95,South,171,2.0,2.0,46,0.00,,,0.00,Wunderground v.1.15,2013-09-30 17:50:00,
2013-09-30 13:51:00,75.4,53.2,29.95,South,171,2.0,2.0,46,0.00,,,0.00,Wunderground v.1.15,2013-09-30 17:51:00,
2013-09-30 13:52:00,75.6,53.4,29.95,South,171,1.0,2.0,46,0.00,,,0.00,Wunderground v.1.15,2013-09-30 17:52:00,
2013-09-30 13:55:00,76.1,52.6,29.94,SE,135,1.0,4.0,44,0.00,,,0.00,Wunderground v.1.15,2013-09-30 17:55:00,
2013-09-30 13:57:00,76.3,52.8,29.94,SE,135,0.0,4.0,44,0.00,,,0.00,Wunderground v.1.15,2013-09-30 17:57:00,
2013-09-30 13:59:00,76.5,52.3,29.94,NNW,327,1.0,4.0,43,0.00,,,0.00,Wunderground v.1.15,2013-09-30 17:59:00,
2013-09-30 14:01:00,76.5,52.3,29.94,NNW,327,1.0,4.0,43,0.00,,,0.00,Wunderground v.1.15,2013-09-30 18:01:00,
2013-09-30 14:02:00,76.7,53.1,29.94,NW,321,1.0,4.0,44,0.00,,,0.00,Wunderground v.1.15,2013-09-30 18:02:00,
2013-09-30 14:03:00,76.7,53.1,29.94,NW,321,1.0,4.0,44,0.00,,,0.00,Wunderground v.1.15,2013-09-30 18:03:00,
2013-09-30 14:04:00,76.7,52.5,29.94,NNW,348,1.0,4.0,43,0.00,,,0.00,Wunderground v.1.15,2013-09-30 18:04:00,
2013-09-30 14:05:00,76.5,52.3,29.94,North,5,2.0,4.0,43,0.00,,,0.00,Wunderground v.1.15,2013-09-30 18:05:00,
2013-09-30 14:09:00,76.0,53.1,29.94,WNW,292,2.0,5.0,45,0.00,,,0.00,Wunderground v.1.15,2013-09-30 18:09:00,
2013-09-30 14:11:00,75.6,54.5,29.94,WNW,291,2.0,2.0,48,0.00,,,0.00,Wunderground v.1.15,2013-09-30 18:11:00,
2013-09-30 14:13:00,75.4,53.8,29.94,WNW,292,2.0,2.0,47,0.00,,,0.00,Wunderground v.1.15,2013-09-30 18:13:00,
2013-09-30 14:14:00,75.3,53.1,29.94,NNW,338,2.0,2.0,46,0.00,,,0.00,Wunderground v.1.15,2013-09-30 18:14:00,
2013-09-30 14:16:00,75.3,51.3,29.94,North,349,2.0,5.0,43,0.00,,,0.00,Wunderground v.1.15,2013-09-30 18:16:00,
2013-09-30 14:19:00,75.3,53.1,29.94,North,350,1.0,5.0,46,0.00,,,0.00,Wunderground v.1.15,2013-09-30 18:19:00,
2013-09-30 14:20:00,75.3,53.1,29.94,North,350,1.0,1.0,46,0.00,,,0.00,Wunderground v.1.15,2013-09-30 18:20:00,
2013-09-30 14:22:00,75.4,52.6,29.94,East,98,1.0,1.0,45,0.00,,,0.00,Wunderground v.1.15,2013-09-30 18:22:00,
2013-09-30 14:26:00,75.8,52.3,29.94,East,98,0.0,1.0,44,0.00,,,0.00,Wunderground v.1.15,2013-09-30 18:26:00,
2013-09-30 14:28:00,76.0,52.5,29.94,East,97,0.0,1.0,44,0.00,,,0.00,Wunderground v.1.15,2013-09-30 18:28:00,
2013-09-30 14:32:00,76.7,53.1,29.94,ENE,76,0.0,0.0,44,0.00,,,0.00,Wunderground v.1.15,2013-09-30 18:32:00,
2013-09-30 14:36:00,76.8,52.6,29.94,East,80,1.0,2.0,43,0.00,,,0.00,Wunderground v.1.15,2013-09-30 18:36:00,
2013-09-30 14:38:00,76.8,53.2,29.93,SSE,155,1.0,4.0,44,0.00,,,0.00,Wunderground v.1.15,2013-09-30 18:38:00,
2013-09-30 14:39:00,76.5,51.0,29.93,SSE,156,2.0,4.0,41,0.00,,,0.00,Wunderground v.1.15,2013-09-30 18:39:00,
2013-09-30 14:41:00,76.1,53.2,29.93,SSE,155,2.0,2.0,45,0.00,,,0.00,Wunderground v.1.15,2013-09-30 18:41:00,
2013-09-30 14:43:00,75.8,51.7,29.93,SSE,157,2.0,2.0,43,0.00,,,0.00,Wunderground v.1.15,2013-09-30 18:43:00,
2013-09-30 14:45:00,75.8,51.7,29.93,SSE,157,2.0,2.0,43,0.00,,,0.00,Wunderground v.1.15,2013-09-30 18:45:00,
2013-09-30 14:46:00,75.8,51.7,29.93,SSE,157,2.0,2.0,43,0.00,,,0.00,Wunderground v.1.15,2013-09-30 18:46:00,
2013-09-30 14:47:00,75.8,51.7,29.93,SSE,157,2.0,2.0,43,0.00,,,0.00,Wunderground v.1.15,2013-09-30 18:47:00,
2013-09-30 14:49:00,76.1,52.6,29.93,South,178,1.0,6.0,44,0.00,,,0.00,Wunderground v.1.15,2013-09-30 18:49:00,
2013-09-30 14:51:00,76.0,51.9,29.93,South,186,2.0,2.0,43,0.00,,,0.00,Wunderground v.1.15,2013-09-30 18:51:00,
2013-09-30 14:52:00,76.0,51.9,29.93,South,186,1.0,2.0,43,0.00,,,0.00,Wunderground v.1.15,2013-09-30 18:52:00,
2013-09-30 14:54:00,76.3,54.0,29.92,South,186,1.0,2.0,46,0.00,,,0.00,Wunderground v.1.15,2013-09-30 18:54:00,
2013-09-30 14:55:00,76.5,54.8,29.92,South,186,1.0,2.0,47,0.00,,,0.00,Wunderground v.1.15,2013-09-30 18:55:00,
2013-09-30 14:59:00,77.2,52.3,29.92,South,186,1.0,5.0,42,0.00,,,0.00,Wunderground v.1.15,2013-09-30 18:59:00,
2013-09-30 15:00:00,77.2,52.3,29.92,North,5,1.0,4.0,42,0.00,,,0.00,Wunderground v.1.15,2013-09-30 19:00:00,
2013-09-30 15:01:00,77.4,52.5,29.92,West,281,1.0,4.0,42,0.00,,,0.00,Wunderground v.1.15,2013-09-30 19:01:00,
2013-09-30 15:02:00,77.4,52.5,29.92,WNW,294,1.0,4.0,42,0.00,,,0.00,Wunderground v.1.15,2013-09-30 19:02:00,
2013-09-30 15:04:00,77.7,53.4,29.92,SSW,200,1.0,4.0,43,0.00,,,0.00,Wunderground v.1.15,2013-09-30 19:04:00,
2013-09-30 15:06:00,78.1,53.8,29.92,SSW,192,1.0,4.0,43,0.00,,,0.00,Wunderground v.1.15,2013-09-30 19:06:00,
2013-09-30 15:07:00,78.1,54.4,29.92,North,355,1.0,7.0,44,0.00,,,0.00,Wunderground v.1.15,2013-09-30 19:07:00,
2013-09-30 15:12:00,78.5,52.8,29.92,North,355,2.0,2.0,41,0.00,,,0.00,Wunderground v.1.15,2013-09-30 19:12:00,
2013-09-30 15:14:00,78.5,53.5,29.92,North,355,2.0,5.0,42,0.00,,,0.00,Wunderground v.1.15,2013-09-30 19:14:00,
2013-09-30 15:15:00,78.5,53.5,29.92,North,360,2.0,5.0,42,0.00,,,0.00,Wunderground v.1.15,2013-09-30 19:15:00,
2013-09-30 15:20:00,78.8,52.4,29.92,North,350,1.0,1.0,40,0.00,,,0.00,Wunderground v.1.15,2013-09-30 19:20:00,
2013-09-30 15:21:00,78.8,53.1,29.92,North,355,1.0,1.0,41,0.00,,,0.00,Wunderground v.1.15,2013-09-30 19:21:00,
2013-09-30 15:24:00,78.8,52.4,29.92,North,360,1.0,3.0,40,0.00,,,0.00,Wunderground v.1.15,2013-09-30 19:24:00,
2013-09-30 15:26:00,78.8,53.8,29.92,NE,53,1.0,3.0,42,0.00,,,0.00,Wunderground v.1.15,2013-09-30 19:26:00,
2013-09-30 15:28:00,79.0,53.3,29.92,ENE,71,1.0,3.0,41,0.00,,,0.00,Wunderground v.1.15,2013-09-30 19:28:00,
2013-09-30 15:31:00,78.8,51.7,29.92,ENE,67,1.0,1.0,39,0.00,,,0.00,Wunderground v.1.15,2013-09-30 19:31:00,
2013-09-30 15:33:00,78.6,53.6,29.92,ESE,115,1.0,5.0,42,0.00,,,0.00,Wunderground v.1.15,2013-09-30 19:33:00,
2013-09-30 15:34:00,78.5,54.1,29.92,SE,131,1.0,5.0,43,0.00,,,0.00,Wunderground v.1.15,2013-09-30 19:34:00,
2013-09-30 15:35:00,78.5,53.5,29.92,SE,132,1.0,5.0,42,0.00,,,0.00,Wunderground v.1.15,2013-09-30 19:35:00,
2013-09-30 15:36:00,78.3,53.3,29.92,SE,132,1.0,5.0,42,0.00,,,0.00,Wunderground v.1.15,2013-09-30 19:36:00,
2013-09-30 15:40:00,78.5,52.8,29.91,SE,132,0.0,0.0,41,0.00,,,0.00,Wunderground v.1.15,2013-09-30 19:40:00,
2013-09-30 15:43:00,78.5,50.8,29.91,SE,132,0.0,1.0,38,0.00,,,0.00,Wunderground v.1.15,2013-09-30 19:43:00,
2013-09-30 15:45:00,78.3,52.0,29.91,ESE,123,0.0,1.0,40,0.00,,,0.00,Wunderground v.1.15,2013-09-30 19:45:00,
2013-09-30 15:48:00,78.3,52.0,29.91,NNE,25,0.0,4.0,40,0.00,,,0.00,Wunderground v.1.15,2013-09-30 19:48:00,
2013-09-30 15:50:00,78.3,52.0,29.91,NNE,23,1.0,1.0,40,0.00,,,0.00,Wunderground v.1.15,2013-09-30 19:50:00,
2013-09-30 15:51:00,78.3,52.7,29.91,North,5,1.0,2.0,41,0.00,,,0.00,Wunderground v.1.15,2013-09-30 19:51:00,
2013-09-30 15:55:00,78.1,53.1,29.91,North,355,1.0,2.0,42,0.00,,,0.00,Wunderground v.1.15,2013-09-30 19:55:00,
2013-09-30 15:56:00,78.1,52.5,29.91,North,360,1.0,2.0,41,0.00,,,0.00,Wunderground v.1.15,2013-09-30 19:56:00,
2013-09-30 15:57:00,78.1,51.8,29.91,North,355,1.0,2.0,40,0.00,,,0.00,Wunderground v.1.15,2013-09-30 19:57:00,
2013-09-30 15:59:00,78.1,51.8,29.91,NE,40,1.0,2.0,40,0.00,,,0.00,Wunderground v.1.15,2013-09-30 19:59:00,
2013-09-30 16:00:00,78.1,51.8,29.91,NE,40,1.0,1.0,40,0.00,,,0.00,Wunderground v.1.15,2013-09-30 20:00:00,
2013-09-30 16:03:00,77.9,51.6,29.91,SE,140,1.0,4.0,40,0.00,,,0.00,Wunderground v.1.15,2013-09-30 20:03:00,
2013-09-30 16:05:00,77.6,50.7,29.91,SE,140,1.0,4.0,39,0.00,,,0.00,Wunderground v.1.15,2013-09-30 20:05:00,
2013-09-30 16:07:00,77.2,51.0,29.91,SE,140,1.0,4.0,40,0.00,,,0.00,Wunderground v.1.15,2013-09-30 20:07:00,
2013-09-30 16:09:00,77.0,50.8,29.91,SE,140,1.0,4.0,40,0.00,,,0.00,Wunderground v.1.15,2013-09-30 20:09:00,
2013-09-30 16:11:00,77.2,51.7,29.91,SE,140,1.0,1.0,41,0.00,,,0.00,Wunderground v.1.15,2013-09-30 20:11:00,
2013-09-30 16:12:00,77.4,51.9,29.91,SE,140,1.0,1.0,41,0.00,,,0.00,Wunderground v.1.15,2013-09-30 20:12:00,
2013-09-30 16:13:00,77.4,52.5,29.91,SE,139,1.0,1.0,42,0.00,,,0.00,Wunderground v.1.15,2013-09-30 20:13:00,
2013-09-30 16:16:00,77.7,52.1,29.91,East,92,0.0,1.0,41,0.00,,,0.00,Wunderground v.1.15,2013-09-30 20:16:00,
2013-09-30 16:18:00,77.9,53.0,29.91,NNW,342,0.0,5.0,42,0.00,,,0.00,Wunderground v.1.15,2013-09-30 20:18:00,
2013-09-30 16:20:00,78.1,51.8,29.91,North,350,1.0,1.0,40,0.00,,,0.00,Wunderground v.1.15,2013-09-30 20:20:00,
2013-09-30 16:23:00,77.9,51.6,29.91,North,349,1.0,1.0,40,0.00,,,0.00,Wunderground v.1.15,2013-09-30 20:23:00,
2013-09-30 16:25:00,77.6,52.7,29.91,NNW,343,1.0,1.0,42,0.00,,,0.00,Wunderground v.1.15,2013-09-30 20:25:00,
2013-09-30 16:30:00,77.6,51.4,29.91,NNW,343,0.0,0.0,40,0.00,,,0.00,Wunderground v.1.15,2013-09-30 20:30:00,
2013-09-30 16:32:00,77.6,52.7,29.91,NNW,343,0.0,0.0,42,0.00,,,0.00,Wunderground v.1.15,2013-09-30 20:32:00,
2013-09-30 16:33:00,77.6,52.0,29.91,NNW,345,0.0,0.0,41,0.00,,,0.00,Wunderground v.1.15,2013-09-30 20:33:00,
2013-09-30 16:36:00,77.6,52.7,29.91,NNW,346,0.0,2.0,42,0.00,,,0.00,Wunderground v.1.15,2013-09-30 20:36:00,
2013-09-30 16:37:00,77.6,53.3,29.91,NNW,346,0.0,2.0,43,0.00,,,0.00,Wunderground v.1.15,2013-09-30 20:37:00,
2013-09-30 16:39:00,77.7,52.8,29.91,NNW,346,0.0,2.0,42,0.00,,,0.00,Wunderground v.1.15,2013-09-30 20:39:00,
2013-09-30 16:42:00,77.7,52.8,29.91,NNW,342,0.0,1.0,42,0.00,,,0.00,Wunderground v.1.15,2013-09-30 20:42:00,
2013-09-30 16:44:00,77.7,52.1,29.91,NNW,346,1.0,2.0,41,0.00,,,0.00,Wunderground v.1.15,2013-09-30 20:44:00,
2013-09-30 16:45:00,77.7,52.1,29.91,NNW,346,1.0,2.0,41,0.00,,,0.00,Wunderground v.1.15,2013-09-30 20:45:00,
2013-09-30 16:47:00,77.7,53.4,29.91,North,5,1.0,2.0,43,0.00,,,0.00,Wunderground v.1.15,2013-09-30 20:47:00,
2013-09-30 16:50:00,77.6,52.0,29.91,NW,320,1.0,1.0,41,0.00,,,0.00,Wunderground v.1.15,2013-09-30 20:50:00,
2013-09-30 16:52:00,77.6,52.7,29.91,NW,320,1.0,1.0,42,0.00,,,0.00,Wunderground v.1.15,2013-09-30 20:52:00,
2013-09-30 16:55:00,77.4,51.9,29.91,NW,320,1.0,1.0,41,0.00,,,0.00,Wunderground v.1.15,2013-09-30 20:55:00,
2013-09-30 16:58:00,77.4,52.5,29.91,NW,320,0.0,1.0,42,0.00,,,0.00,Wunderground v.1.15,2013-09-30 20:58:00,
2013-09-30 17:00:00,77.2,51.7,29.91,NW,320,0.0,0.0,41,0.00,,,0.00,Wunderground v.1.15,2013-09-30 21:00:00,
2013-09-30 17:03:00,77.2,53.0,29.91,NW,320,0.0,0.0,43,0.00,,,0.00,Wunderground v.1.15,2013-09-30 21:03:00,
2013-09-30 17:05:00,77.0,52.8,29.91,NW,320,0.0,0.0,43,0.00,,,0.00,Wunderground v.1.15,2013-09-30 21:05:00,
2013-09-30 17:07:00,76.8,52.6,29.91,NW,320,0.0,0.0,43,0.00,,,0.00,Wunderground v.1.15,2013-09-30 21:07:00,
2013-09-30 17:10:00,76.5,53.0,29.91,NW,320,0.0,0.0,44,0.00,,,0.00,Wunderground v.1.15,2013-09-30 21:10:00,
2013-09-30 17:13:00,76.3,52.2,29.91,NW,320,0.0,0.0,43,0.00,,,0.00,Wunderground v.1.15,2013-09-30 21:13:00,
2013-09-30 17:17:00,76.1,54.4,29.91,NW,320,0.0,0.0,47,0.00,,,0.00,Wunderground v.1.15,2013-09-30 21:17:00,
2013-09-30 17:18:00,76.1,52.0,29.91,NW,320,0.0,0.0,43,0.00,,,0.00,Wunderground v.1.15,2013-09-30 21:18:00,
2013-09-30 17:20:00,76.1,52.0,29.91,NW,320,0.0,1.0,43,0.00,,,0.00,Wunderground v.1.15,2013-09-30 21:20:00,
2013-09-30 17:21:00,76.3,52.8,29.91,NW,320,0.0,1.0,44,0.00,,,0.00,Wunderground v.1.15,2013-09-30 21:21:00,
2013-09-30 17:23:00,76.3,52.2,29.91,NW,320,0.0,1.0,43,0.00,,,0.00,Wunderground v.1.15,2013-09-30 21:23:00,
2013-09-30 17:27:00,76.1,52.0,29.91,NW,320,0.0,1.0,43,0.00,,,0.00,Wunderground v.1.15,2013-09-30 21:27:00,
2013-09-30 17:28:00,76.1,52.6,29.91,NW,320,0.0,1.0,44,0.00,,,0.00,Wunderground v.1.15,2013-09-30 21:28:00,
2013-09-30 17:30:00,76.0,53.7,29.91,NW,321,0.0,1.0,46,0.00,,,0.00,Wunderground v.1.15,2013-09-30 21:30:00,
2013-09-30 17:33:00,75.4,54.3,29.91,SSE,153,1.0,1.0,48,0.00,,,0.00,Wunderground v.1.15,2013-09-30 21:33:00,
2013-09-30 17:35:00,75.1,54.6,29.91,SE,146,1.0,1.0,49,0.00,,,0.00,Wunderground v.1.15,2013-09-30 21:35:00,
2013-09-30 17:37:00,74.9,54.4,29.91,SE,144,1.0,1.0,49,0.00,,,0.00,Wunderground v.1.15,2013-09-30 21:37:00,
2013-09-30 17:40:00,74.4,54.5,29.92,SSE,154,1.0,1.0,50,0.00,,,0.00,Wunderground v.1.15,2013-09-30 21:40:00,
2013-09-30 17:42:00,74.0,55.3,29.92,SSE,154,1.0,1.0,52,0.00,,,0.00,Wunderground v.1.15,2013-09-30 21:42:00,
2013-09-30 17:46:00,73.7,55.0,29.92,South,184,1.0,4.0,52,0.00,,,0.00,Wunderground v.1.15,2013-09-30 21:46:00,
2013-09-30 17:48:00,73.5,54.8,29.92,South,186,1.0,4.0,52,0.00,,,0.00,Wunderground v.1.15,2013-09-30 21:48:00,
2013-09-30 17:51:00,73.5,54.8,29.92,South,186,1.0,1.0,52,0.00,,,0.00,Wunderground v.1.15,2013-09-30 21:51:00,
2013-09-30 17:52:00,73.5,55.3,29.92,South,186,0.0,1.0,53,0.00,,,0.00,Wunderground v.1.15,2013-09-30 21:52:00,
2013-09-30 17:55:00,73.3,55.1,29.92,South,185,0.0,1.0,53,0.00,,,0.00,Wunderground v.1.15,2013-09-30 21:55:00,
2013-09-30 17:56:00,73.3,55.1,29.92,South,185,0.0,1.0,53,0.00,,,0.00,Wunderground v.1.15,2013-09-30 21:56:00,
2013-09-30 17:58:00,73.2,54.5,29.92,SSE,167,0.0,5.0,52,0.00,,,0.00,Wunderground v.1.15,2013-09-30 21:58:00,
2013-09-30 18:01:00,73.0,54.3,29.92,ESE,121,0.0,5.0,52,0.00,,,0.00,Wunderground v.1.15,2013-09-30 22:01:00,
2013-09-30 18:02:00,73.0,54.3,29.92,SE,126,1.0,5.0,52,0.00,,,0.00,Wunderground v.1.15,2013-09-30 22:02:00,
2013-09-30 18:03:00,72.8,54.1,29.92,SE,128,1.0,5.0,52,0.00,,,0.00,Wunderground v.1.15,2013-09-30 22:03:00,
2013-09-30 18:06:00,72.8,54.7,29.92,SE,140,1.0,5.0,53,0.00,,,0.00,Wunderground v.1.15,2013-09-30 22:06:00,
2013-09-30 18:07:00,72.7,55.1,29.92,SE,140,1.0,5.0,54,0.00,,,0.00,Wunderground v.1.15,2013-09-30 22:07:00,
2013-09-30 18:08:00,72.7,55.1,29.93,SE,140,1.0,5.0,54,0.00,,,0.00,Wunderground v.1.15,2013-09-30 22:08:00,
2013-09-30 18:09:00,72.7,55.6,29.93,SE,139,1.0,5.0,55,0.00,,,0.00,Wunderground v.1.15,2013-09-30 22:09:00,
2013-09-30 18:10:00,72.5,55.4,29.93,SE,139,1.0,1.0,55,0.00,,,0.00,Wunderground v.1.15,2013-09-30 22:10:00,
2013-09-30 18:12:00,72.5,55.4,29.93,SE,139,1.0,1.0,55,0.00,,,0.00,Wunderground v.1.15,2013-09-30 22:12:00,
2013-09-30 18:14:00,72.3,55.7,29.93,SE,139,1.0,1.0,56,0.00,,,0.00,Wunderground v.1.15,2013-09-30 22:14:00,
2013-09-30 18:16:00,72.1,55.5,29.93,SE,140,1.0,1.0,56,0.00,,,0.00,Wunderground v.1.15,2013-09-30 22:16:00,
2013-09-30 18:17:00,72.1,55.5,29.93,South,186,1.0,1.0,56,0.00,,,0.00,Wunderground v.1.15,2013-09-30 22:17:00,
2013-09-30 18:18:00,72.0,55.4,29.93,SSE,150,1.0,1.0,56,0.00,,,0.00,Wunderground v.1.15,2013-09-30 22:18:00,
2013-09-30 18:22:00,71.6,56.0,29.93,SSE,152,0.0,4.0,58,0.00,,,0.00,Wunderground v.1.15,2013-09-30 22:22:00,
2013-09-30 18:23:00,71.6,56.0,29.93,SSE,152,0.0,4.0,58,0.00,,,0.00,Wunderground v.1.15,2013-09-30 22:23:00,
2013-09-30 18:27:00,71.3,55.8,29.93,SSE,152,0.0,4.0,58,0.00,,,0.00,Wunderground v.1.15,2013-09-30 22:27:00,
2013-09-30 18:28:00,71.3,55.8,29.93,SSE,152,0.0,4.0,58,0.00,,,0.00,Wunderground v.1.15,2013-09-30 22:28:00,
2013-09-30 18:29:00,71.3,56.2,29.93,SSE,152,0.0,4.0,59,0.00,,,0.00,Wunderground v.1.15,2013-09-30 22:29:00,
2013-09-30 18:30:00,71.1,56.0,29.93,SSE,152,0.0,1.0,59,0.00,,,0.00,Wunderground v.1.15,2013-09-30 22:30:00,
2013-09-30 18:34:00,70.9,55.9,29.93,SSE,152,0.0,1.0,59,0.00,,,0.00,Wunderground v.1.15,2013-09-30 22:34:00,
2013-09-30 18:35:00,70.9,55.9,29.93,SSE,152,0.0,1.0,59,0.00,,,0.00,Wunderground v.1.15,2013-09-30 22:35:00,
2013-09-30 18:36:00,70.8,55.8,29.93,SSE,152,0.0,1.0,59,0.00,,,0.00,Wunderground v.1.15,2013-09-30 22:36:00,
2013-09-30 18:37:00,70.8,55.8,29.93,SSE,152,0.0,1.0,59,0.00,,,0.00,Wunderground v.1.15,2013-09-30 22:37:00,
2013-09-30 18:38:00,70.8,56.2,29.94,SSE,152,0.0,1.0,60,0.00,,,0.00,Wunderground v.1.15,2013-09-30 22:38:00,
2013-09-30 18:41:00,70.6,56.0,29.94,SSE,152,0.0,2.0,60,0.00,,,0.00,Wunderground v.1.15,2013-09-30 22:41:00,
2013-09-30 18:44:00,70.4,56.3,29.94,SSE,153,0.0,2.0,61,0.00,,,0.00,Wunderground v.1.15,2013-09-30 22:44:00,
2013-09-30 18:45:00,70.4,56.3,29.94,SSE,153,0.0,2.0,61,0.00,,,0.00,Wunderground v.1.15,2013-09-30 22:45:00,
2013-09-30 18:47:00,70.3,56.7,29.94,SSE,153,0.0,2.0,62,0.00,,,0.00,Wunderground v.1.15,2013-09-30 22:47:00,
2013-09-30 18:48:00,70.3,56.7,29.94,SSE,153,0.0,2.0,62,0.00,,,0.00,Wunderground v.1.15,2013-09-30 22:48:00,
2013-09-30 18:49:00,70.3,56.7,29.94,SSE,153,0.0,2.0,62,0.00,,,0.00,Wunderground v.1.15,2013-09-30 22:49:00,
2013-09-30 18:50:00,70.1,56.5,29.94,SSE,153,0.0,0.0,62,0.00,,,0.00,Wunderground v.1.15,2013-09-30 22:50:00,
2013-09-30 18:55:00,69.9,56.7,29.95,SSE,153,0.0,0.0,63,0.00,,,0.00,Wunderground v.1.15,2013-09-30 22:55:00,
2013-09-30 18:58:00,69.9,56.7,29.95,SSE,153,0.0,1.0,63,0.00,,,0.00,Wunderground v.1.15,2013-09-30 22:58:00,
2013-09-30 19:03:00,69.6,56.9,29.95,SSE,153,0.0,0.0,64,0.00,,,0.00,Wunderground v.1.15,2013-09-30 23:03:00,
2013-09-30 19:05:00,69.6,56.9,29.95,SSE,153,0.0,0.0,64,0.00,,,0.00,Wunderground v.1.15,2013-09-30 23:05:00,
2013-09-30 19:08:00,69.4,57.1,29.95,SSE,153,0.0,0.0,65,0.00,,,0.00,Wunderground v.1.15,2013-09-30 23:08:00,
2013-09-30 19:10:00,69.3,56.6,29.95,SSE,153,0.0,0.0,64,0.00,,,0.00,Wunderground v.1.15,2013-09-30 23:10:00,
2013-09-30 19:12:00,69.3,57.0,29.95,SSE,153,0.0,0.0,65,0.00,,,0.00,Wunderground v.1.15,2013-09-30 23:12:00,
2013-09-30 19:14:00,69.3,57.0,29.95,SSE,153,0.0,2.0,65,0.00,,,0.00,Wunderground v.1.15,2013-09-30 23:14:00,
2013-09-30 19:15:00,69.1,56.8,29.95,SSE,153,0.0,2.0,65,0.00,,,0.00,Wunderground v.1.15,2013-09-30 23:15:00,
2013-09-30 19:17:00,69.1,56.8,29.95,SSE,153,0.0,2.0,65,0.00,,,0.00,Wunderground v.1.15,2013-09-30 23:17:00,
2013-09-30 19:19:00,69.1,56.8,29.95,SSE,153,0.0,2.0,65,0.00,,,0.00,Wunderground v.1.15,2013-09-30 23:19:00,
2013-09-30 19:20:00,69.1,56.8,29.95,SSE,153,0.0,0.0,65,0.00,,,0.00,Wunderground v.1.15,2013-09-30 23:20:00,
2013-09-30 19:24:00,68.9,57.1,29.96,SSE,153,0.0,0.0,66,0.00,,,0.00,Wunderground v.1.15,2013-09-30 23:24:00,
2013-09-30 19:25:00,68.9,57.1,29.96,SSE,153,0.0,0.0,66,0.00,,,0.00,Wunderground v.1.15,2013-09-30 23:25:00,
2013-09-30 19:26:00,68.9,57.1,29.96,SSE,153,0.0,0.0,66,0.00,,,0.00,Wunderground v.1.15,2013-09-30 23:26:00,
2013-09-30 19:30:00,68.8,57.0,29.96,SSE,153,0.0,0.0,66,0.00,,,0.00,Wunderground v.1.15,2013-09-30 23:30:00,
2013-09-30 19:31:00,68.6,56.8,29.96,SSE,153,0.0,0.0,66,0.00,,,0.00,Wunderground v.1.15,2013-09-30 23:31:00,
2013-09-30 19:34:00,68.6,56.8,29.96,SSE,153,0.0,0.0,66,0.00,,,0.00,Wunderground v.1.15,2013-09-30 23:34:00,
2013-09-30 19:35:00,68.6,57.2,29.96,SSE,153,0.0,0.0,67,0.00,,,0.00,Wunderground v.1.15,2013-09-30 23:35:00,
2013-09-30 19:38:00,68.4,57.0,29.96,SSE,153,0.0,1.0,67,0.00,,,0.00,Wunderground v.1.15,2013-09-30 23:38:00,
2013-09-30 19:40:00,68.4,56.6,29.96,SSE,153,0.0,0.0,66,0.00,,,0.00,Wunderground v.1.15,2013-09-30 23:40:00,
2013-09-30 19:42:00,68.3,56.9,29.96,SSE,153,0.0,0.0,67,0.00,,,0.00,Wunderground v.1.15,2013-09-30 23:42:00,
2013-09-30 19:46:00,68.1,56.7,29.96,SSE,153,0.0,0.0,67,0.00,,,0.00,Wunderground v.1.15,2013-09-30 23:46:00,
2013-09-30 19:47:00,68.1,56.7,29.96,SSE,153,0.0,0.0,67,0.00,,,0.00,Wunderground v.1.15,2013-09-30 23:47:00,
2013-09-30 19:51:00,68.1,56.7,29.96,SSE,153,0.0,0.0,67,0.00,,,0.00,Wunderground v.1.15,2013-09-30 23:51:00,
2013-09-30 19:52:00,67.9,56.5,29.96,SSE,153,0.0,0.0,67,0.00,,,0.00,Wunderground v.1.15,2013-09-30 23:52:00,
2013-09-30 19:53:00,67.9,56.5,29.97,SSE,153,0.0,0.0,67,0.00,,,0.00,Wunderground v.1.15,2013-09-30 23:53:00,
2013-09-30 19:56:00,67.9,56.5,29.97,SSE,153,0.0,0.0,67,0.00,,,0.00,Wunderground v.1.15,2013-09-30 23:56:00,
2013-09-30 19:57:00,67.9,56.9,29.97,SSE,153,0.0,0.0,68,0.00,,,0.00,Wunderground v.1.15,2013-09-30 23:57:00,
2013-09-30 20:00:00,67.8,56.9,29.97,SSE,153,0.0,0.0,68,0.00,,,0.00,Wunderground v.1.15,2013-10-01 00:00:00,
2013-09-30 20:01:00,67.8,56.9,29.97,SSE,153,0.0,0.0,68,0.00,,,0.00,Wunderground v.1.15,2013-10-01 00:01:00,
2013-09-30 20:03:00,67.8,56.9,29.97,SSE,153,0.0,0.0,68,0.00,,,0.00,Wunderground v.1.15,2013-10-01 00:03:00,
2013-09-30 20:05:00,67.6,56.7,29.97,SSE,153,0.0,0.0,68,0.00,,,0.00,Wunderground v.1.15,2013-10-01 00:05:00,
2013-09-30 20:06:00,67.6,56.7,29.97,SSE,153,0.0,0.0,68,0.00,,,0.00,Wunderground v.1.15,2013-10-01 00:06:00,
2013-09-30 20:08:00,67.6,56.7,29.97,SSE,153,0.0,0.0,68,0.00,,,0.00,Wunderground v.1.15,2013-10-01 00:08:00,
2013-09-30 20:12:00,67.4,56.9,29.97,SSE,153,0.0,0.0,69,0.00,,,0.00,Wunderground v.1.15,2013-10-01 00:12:00,
2013-09-30 20:13:00,67.4,56.9,29.97,SSE,153,0.0,0.0,69,0.00,,,0.00,Wunderground v.1.15,2013-10-01 00:13:00,
2013-09-30 20:18:00,67.3,56.8,29.97,SSE,153,0.0,1.0,69,0.00,,,0.00,Wunderground v.1.15,2013-10-01 00:18:00,
2013-09-30 20:20:00,67.3,56.8,29.97,SSE,153,0.0,0.0,69,0.00,,,0.00,Wunderground v.1.15,2013-10-01 00:20:00,
2013-09-30 20:22:00,67.1,56.6,29.97,SSE,153,0.0,0.0,69,0.00,,,0.00,Wunderground v.1.15,2013-10-01 00:22:00,
2013-09-30 20:28:00,67.1,56.6,29.98,SSE,153,0.0,0.0,69,0.00,,,0.00,Wunderground v.1.15,2013-10-01 00:28:00,
2013-09-30 20:29:00,67.1,56.6,29.98,SSE,153,0.0,0.0,69,0.00,,,0.00,Wunderground v.1.15,2013-10-01 00:29:00,
2013-09-30 20:30:00,66.9,56.4,29.98,SSE,153,0.0,0.0,69,0.00,,,0.00,Wunderground v.1.15,2013-10-01 00:30:00,
2013-09-30 20:31:00,66.9,56.4,29.98,SSE,153,0.0,0.0,69,0.00,,,0.00,Wunderground v.1.15,2013-10-01 00:31:00,
2013-09-30 20:34:00,66.9,56.4,29.98,SSE,153,0.0,0.0,69,0.00,,,0.00,Wunderground v.1.15,2013-10-01 00:34:00,
2013-09-30 20:36:00,66.9,56.4,29.98,SSE,153,0.0,0.0,69,0.00,,,0.00,Wunderground v.1.15,2013-10-01 00:36:00,
2013-09-30 20:41:00,66.8,56.7,29.98,SSE,153,0.0,0.0,70,0.00,,,0.00,Wunderground v.1.15,2013-10-01 00:41:00,
2013-09-30 20:42:00,66.8,56.7,29.98,SSE,153,0.0,0.0,70,0.00,,,0.00,Wunderground v.1.15,2013-10-01 00:42:00,
2013-09-30 20:45:00,66.8,56.7,29.98,SSE,153,0.0,0.0,70,0.00,,,0.00,Wunderground v.1.15,2013-10-01 00:45:00,
2013-09-30 20:46:00,66.6,56.5,29.98,SSE,153,0.0,0.0,70,0.00,,,0.00,Wunderground v.1.15,2013-10-01 00:46:00,
2013-09-30 20:50:00,66.6,56.9,29.98,SSE,153,0.0,0.0,71,0.00,,,0.00,Wunderground v.1.15,2013-10-01 00:50:00,
2013-09-30 20:51:00,66.6,56.9,29.98,SSE,153,0.0,0.0,71,0.00,,,0.00,Wunderground v.1.15,2013-10-01 00:51:00,
2013-09-30 20:52:00,66.6,56.9,29.98,SSE,153,0.0,0.0,71,0.00,,,0.00,Wunderground v.1.15,2013-10-01 00:52:00,
2013-09-30 20:53:00,66.6,56.9,29.98,SSE,153,0.0,0.0,71,0.00,,,0.00,Wunderground v.1.15,2013-10-01 00:53:00,
2013-09-30 20:56:00,66.6,56.9,29.98,SSE,153,0.0,0.0,71,0.00,,,0.00,Wunderground v.1.15,2013-10-01 00:56:00,
2013-09-30 20:58:00,66.4,56.7,29.98,SSE,153,0.0,0.0,71,0.00,,,0.00,Wunderground v.1.15,2013-10-01 00:58:00,
2013-09-30 21:01:00,66.4,56.7,29.98,SSE,153,0.0,0.0,71,0.00,,,0.00,Wunderground v.1.15,2013-10-01 01:01:00,
2013-09-30 21:02:00,66.4,56.7,29.98,SSE,153,0.0,1.0,71,0.00,,,0.00,Wunderground v.1.15,2013-10-01 01:02:00,
2013-09-30 21:03:00,66.4,56.7,29.98,SSE,153,0.0,1.0,71,0.00,,,0.00,Wunderground v.1.15,2013-10-01 01:03:00,
2013-09-30 21:05:00,66.3,56.6,29.98,SSE,153,0.0,1.0,71,0.00,,,0.00,Wunderground v.1.15,2013-10-01 01:05:00,
2013-09-30 21:08:00,66.3,56.6,29.98,SSE,153,0.0,1.0,71,0.00,,,0.00,Wunderground v.1.15,2013-10-01 01:08:00,
2013-09-30 21:10:00,66.3,56.6,29.98,SSE,153,0.0,0.0,71,0.00,,,0.00,Wunderground v.1.15,2013-10-01 01:10:00,
2013-09-30 21:11:00,66.3,56.6,29.98,SSE,153,0.0,0.0,71,0.00,,,0.00,Wunderground v.1.15,2013-10-01 01:11:00,
2013-09-30 21:12:00,66.1,56.4,29.98,SSE,153,0.0,0.0,71,0.00,,,0.00,Wunderground v.1.15,2013-10-01 01:12:00,
2013-09-30 21:15:00,66.1,56.8,29.98,SSE,153,0.0,0.0,72,0.00,,,0.00,Wunderground v.1.15,2013-10-01 01:15:00,
2013-09-30 21:17:00,66.1,56.8,29.98,SSE,153,0.0,0.0,72,0.00,,,0.00,Wunderground v.1.15,2013-10-01 01:17:00,
2013-09-30 21:19:00,66.0,56.7,29.98,SSE,153,0.0,0.0,72,0.00,,,0.00,Wunderground v.1.15,2013-10-01 01:19:00,
2013-09-30 21:20:00,66.0,56.7,29.98,SSE,153,0.0,0.0,72,0.00,,,0.00,Wunderground v.1.15,2013-10-01 01:20:00,
2013-09-30 21:23:00,66.0,56.7,29.97,SSE,153,0.0,0.0,72,0.00,,,0.00,Wunderground v.1.15,2013-10-01 01:23:00,
2013-09-30 21:25:00,65.8,56.5,29.97,SSE,153,0.0,0.0,72,0.00,,,0.00,Wunderground v.1.15,2013-10-01 01:25:00,
2013-09-30 21:27:00,65.8,56.5,29.97,SSE,153,0.0,0.0,72,0.00,,,0.00,Wunderground v.1.15,2013-10-01 01:27:00,
2013-09-30 21:29:00,65.8,56.5,29.97,SSE,153,0.0,0.0,72,0.00,,,0.00,Wunderground v.1.15,2013-10-01 01:29:00,
2013-09-30 21:30:00,65.6,56.3,29.97,SSE,153,0.0,0.0,72,0.00,,,0.00,Wunderground v.1.15,2013-10-01 01:30:00,
2013-09-30 21:31:00,65.6,56.3,29.97,SSE,153,0.0,0.0,72,0.00,,,0.00,Wunderground v.1.15,2013-10-01 01:31:00,
2013-09-30 21:32:00,65.6,56.3,29.97,SSE,153,0.0,0.0,72,0.00,,,0.00,Wunderground v.1.15,2013-10-01 01:32:00,
2013-09-30 21:34:00,65.6,56.3,29.97,SSE,153,0.0,0.0,72,0.00,,,0.00,Wunderground v.1.15,2013-10-01 01:34:00,
2013-09-30 21:36:00,65.5,56.6,29.97,SSE,153,0.0,0.0,73,0.00,,,0.00,Wunderground v.1.15,2013-10-01 01:36:00,
2013-09-30 21:37:00,65.5,56.6,29.97,SSE,153,0.0,0.0,73,0.00,,,0.00,Wunderground v.1.15,2013-10-01 01:37:00,
2013-09-30 21:39:00,65.5,57.0,29.97,SSE,153,0.0,0.0,74,0.00,,,0.00,Wunderground v.1.15,2013-10-01 01:39:00,
2013-09-30 21:43:00,65.2,56.7,29.97,SSE,153,0.0,0.0,74,0.00,,,0.00,Wunderground v.1.15,2013-10-01 01:43:00,
2013-09-30 21:44:00,65.2,56.7,29.97,SSE,153,0.0,0.0,74,0.00,,,0.00,Wunderground v.1.15,2013-10-01 01:44:00,
2013-09-30 21:46:00,65.2,56.7,29.97,SSE,153,0.0,0.0,74,0.00,,,0.00,Wunderground v.1.15,2013-10-01 01:46:00,
2013-09-30 21:50:00,65.0,56.5,29.97,SSE,153,0.0,0.0,74,0.00,,,0.00,Wunderground v.1.15,2013-10-01 01:50:00,
2013-09-30 21:51:00,65.0,56.5,29.97,SSE,153,0.0,0.0,74,0.00,,,0.00,Wunderground v.1.15,2013-10-01 01:51:00,
2013-09-30 21:52:00,65.0,56.5,29.97,SSE,153,0.0,0.0,74,0.00,,,0.00,Wunderground v.1.15,2013-10-01 01:52:00,
2013-09-30 21:55:00,65.0,56.5,29.97,SSE,153,0.0,0.0,74,0.00,,,0.00,Wunderground v.1.15,2013-10-01 01:55:00,
2013-09-30 21:57:00,65.0,56.9,29.97,SSE,153,0.0,0.0,75,0.00,,,0.00,Wunderground v.1.15,2013-10-01 01:57:00,
2013-09-30 21:59:00,64.8,56.3,29.97,SSE,153,0.0,0.0,74,0.00,,,0.00,Wunderground v.1.15,2013-10-01 01:59:00,
2013-09-30 22:01:00,64.8,56.7,29.97,SSE,153,0.0,0.0,75,0.00,,,0.00,Wunderground v.1.15,2013-10-01 02:01:00,
2013-09-30 22:02:00,64.7,56.6,29.97,SSE,153,0.0,0.0,75,0.00,,,0.00,Wunderground v.1.15,2013-10-01 02:02:00,
2013-09-30 22:05:00,64.7,56.6,29.97,SSE,153,0.0,0.0,75,0.00,,,0.00,Wunderground v.1.15,2013-10-01 02:05:00,
2013-09-30 22:08:00,64.5,56.4,29.98,SSE,153,0.0,0.0,75,0.00,,,0.00,Wunderground v.1.15,2013-10-01 02:08:00,
2013-09-30 22:10:00,64.5,56.4,29.98,SSE,153,0.0,0.0,75,0.00,,,0.00,Wunderground v.1.15,2013-10-01 02:10:00,
2013-09-30 22:12:00,64.3,56.2,29.98,SSE,153,0.0,0.0,75,0.00,,,0.00,Wunderground v.1.15,2013-10-01 02:12:00,
2013-09-30 22:13:00,64.3,56.2,29.98,SSE,153,0.0,0.0,75,0.00,,,0.00,Wunderground v.1.15,2013-10-01 02:13:00,
2013-09-30 22:15:00,64.3,56.6,29.98,SSE,153,0.0,0.0,76,0.00,,,0.00,Wunderground v.1.15,2013-10-01 02:15:00,
2013-09-30 22:16:00,64.3,56.6,29.98,SSE,153,0.0,0.0,76,0.00,,,0.00,Wunderground v.1.15,2013-10-01 02:16:00,
2013-09-30 22:18:00,64.2,56.5,29.98,SSE,153,0.0,0.0,76,0.00,,,0.00,Wunderground v.1.15,2013-10-01 02:18:00,
2013-09-30 22:23:00,64.0,56.6,29.97,SSE,153,0.0,0.0,77,0.00,,,0.00,Wunderground v.1.15,2013-10-01 02:23:00,
2013-09-30 22:27:00,63.9,56.5,29.97,SSE,153,0.0,0.0,77,0.00,,,0.00,Wunderground v.1.15,2013-10-01 02:27:00,
2013-09-30 22:29:00,63.9,56.9,29.97,SSE,153,0.0,0.0,78,0.00,,,0.00,Wunderground v.1.15,2013-10-01 02:29:00,
2013-09-30 22:30:00,63.7,56.7,29.97,SSE,153,0.0,0.0,78,0.00,,,0.00,Wunderground v.1.15,2013-10-01 02:30:00,
2013-09-30 22:31:00,63.7,56.7,29.97,SSE,153,0.0,0.0,78,0.00,,,0.00,Wunderground v.1.15,2013-10-01 02:31:00,
2013-09-30 22:33:00,63.7,56.7,29.97,SSE,153,0.0,0.0,78,0.00,,,0.00,Wunderground v.1.15,2013-10-01 02:33:00,
2013-09-30 22:35:00,63.5,56.5,29.97,SSE,153,0.0,0.0,78,0.00,,,0.00,Wunderground v.1.15,2013-10-01 02:35:00,
2013-09-30 22:37:00,63.5,56.5,29.97,SSE,153,0.0,0.0,78,0.00,,,0.00,Wunderground v.1.15,2013-10-01 02:37:00,
2013-09-30 22:38:00,63.5,56.5,29.98,SSE,153,0.0,0.0,78,0.00,,,0.00,Wunderground v.1.15,2013-10-01 02:38:00,
2013-09-30 22:40:00,63.5,56.9,29.98,SSE,153,0.0,0.0,79,0.00,,,0.00,Wunderground v.1.15,2013-10-01 02:40:00,
2013-09-30 22:43:00,63.4,56.8,29.98,SSE,153,0.0,0.0,79,0.00,,,0.00,Wunderground v.1.15,2013-10-01 02:43:00,
2013-09-30 22:45:00,63.4,56.8,29.98,SSE,153,0.0,0.0,79,0.00,,,0.00,Wunderground v.1.15,2013-10-01 02:45:00,
2013-09-30 22:47:00,63.4,56.8,29.98,SSE,153,0.0,0.0,79,0.00,,,0.00,Wunderground v.1.15,2013-10-01 02:47:00,
2013-09-30 22:48:00,63.4,56.8,29.98,SSE,153,0.0,0.0,79,0.00,,,0.00,Wunderground v.1.15,2013-10-01 02:48:00,
2013-09-30 22:50:00,63.2,56.6,29.98,SSE,153,0.0,0.0,79,0.00,,,0.00,Wunderground v.1.15,2013-10-01 02:50:00,
2013-09-30 22:51:00,63.2,56.6,29.98,SSE,153,0.0,0.0,79,0.00,,,0.00,Wunderground v.1.15,2013-10-01 02:51:00,
2013-09-30 22:54:00,63.2,56.6,29.98,SSE,153,0.0,0.0,79,0.00,,,0.00,Wunderground v.1.15,2013-10-01 02:54:00,
2013-09-30 22:55:00,63.1,56.8,29.98,SSE,153,0.0,0.0,80,0.00,,,0.00,Wunderground v.1.15,2013-10-01 02:55:00,
2013-09-30 22:56:00,63.1,56.8,29.98,SSE,153,0.0,0.0,80,0.00,,,0.00,Wunderground v.1.15,2013-10-01 02:56:00,
2013-09-30 22:57:00,63.1,56.8,29.98,SSE,153,0.0,0.0,80,0.00,,,0.00,Wunderground v.1.15,2013-10-01 02:57:00,
2013-09-30 23:00:00,62.9,56.6,29.98,SSE,153,0.0,0.0,80,0.00,,,0.00,Wunderground v.1.15,2013-10-01 03:00:00,
2013-09-30 23:01:00,62.9,56.6,29.98,SSE,153,0.0,0.0,80,0.00,,,0.00,Wunderground v.1.15,2013-10-01 03:01:00,
2013-09-30 23:02:00,62.7,56.4,29.98,SSE,153,0.0,0.0,80,0.00,,,0.00,Wunderground v.1.15,2013-10-01 03:02:00,
2013-09-30 23:05:00,62.6,56.7,29.98,SSE,153,0.0,0.0,81,0.00,,,0.00,Wunderground v.1.15,2013-10-01 03:05:00,
2013-09-30 23:06:00,62.6,56.7,29.98,SSE,153,0.0,0.0,81,0.00,,,0.00,Wunderground v.1.15,2013-10-01 03:06:00,
2013-09-30 23:07:00,62.6,56.7,29.98,SSE,153,0.0,0.0,81,0.00,,,0.00,Wunderground v.1.15,2013-10-01 03:07:00,
2013-09-30 23:11:00,62.3,56.4,29.98,SSE,153,0.0,0.0,81,0.00,,,0.00,Wunderground v.1.15,2013-10-01 03:11:00,
2013-09-30 23:12:00,62.1,56.2,29.98,SSE,153,0.0,0.0,81,0.00,,,0.00,Wunderground v.1.15,2013-10-01 03:12:00,
2013-09-30 23:16:00,62.0,56.4,29.98,SSE,153,0.0,0.0,82,0.00,,,0.00,Wunderground v.1.15,2013-10-01 03:16:00,
2013-09-30 23:19:00,61.6,56.0,29.98,SSE,153,0.0,0.0,82,0.00,,,0.00,Wunderground v.1.15,2013-10-01 03:19:00,
2013-09-30 23:20:00,61.6,56.4,29.98,SSE,153,0.0,0.0,83,0.00,,,0.00,Wunderground v.1.15,2013-10-01 03:20:00,
2013-09-30 23:21:00,61.5,56.3,29.98,SSE,153,0.0,0.0,83,0.00,,,0.00,Wunderground v.1.15,2013-10-01 03:21:00,
2013-09-30 23:22:00,61.3,56.4,29.98,SSE,153,0.0,0.0,84,0.00,,,0.00,Wunderground v.1.15,2013-10-01 03:22:00,
2013-09-30 23:23:00,61.3,56.4,29.97,SSE,153,0.0,0.0,84,0.00,,,0.00,Wunderground v.1.15,2013-10-01 03:23:00,
2013-09-30 23:27:00,61.0,56.1,29.97,SSE,153,0.0,0.0,84,0.00,,,0.00,Wunderground v.1.15,2013-10-01 03:27:00,
2013-09-30 23:28:00,61.0,56.1,29.97,SSE,153,0.0,0.0,84,0.00,,,0.00,Wunderground v.1.15,2013-10-01 03:28:00,
2013-09-30 23:30:00,60.9,56.0,29.97,SSE,153,0.0,0.0,84,0.00,,,0.00,Wunderground v.1.15,2013-10-01 03:30:00,
2013-09-30 23:32:00,60.7,55.8,29.97,SSE,153,0.0,0.0,84,0.00,,,0.00,Wunderground v.1.15,2013-10-01 03:32:00,
2013-09-30 23:36:00,60.4,55.5,29.97,SSE,153,0.0,0.0,84,0.00,,,0.00,Wunderground v.1.15,2013-10-01 03:36:00,
2013-09-30 23:37:00,60.4,55.5,29.97,SSE,153,0.0,0.0,84,0.00,,,0.00,Wunderground v.1.15,2013-10-01 03:37:00,
2013-09-30 23:38:00,60.2,55.7,29.97,SSE,153,0.0,0.0,85,0.00,,,0.00,Wunderground v.1.15,2013-10-01 03:38:00,
2013-09-30 23:41:00,60.1,55.6,29.97,SSE,153,0.0,0.0,85,0.00,,,0.00,Wunderground v.1.15,2013-10-01 03:41:00,
2013-09-30 23:43:00,59.8,55.6,29.97,SSE,153,0.0,0.0,86,0.00,,,0.00,Wunderground v.1.15,2013-10-01 03:43:00,
2013-09-30 23:45:00,59.8,55.6,29.97,SSE,153,0.0,0.0,86,0.00,,,0.00,Wunderground v.1.15,2013-10-01 03:45:00,
2013-09-30 23:48:00,59.5,55.3,29.97,SSE,153,0.0,0.0,86,0.00,,,0.00,Wunderground v.1.15,2013-10-01 03:48:00,
2013-09-30 23:49:00,59.5,55.3,29.97,SSE,153,0.0,0.0,86,0.00,,,0.00,Wunderground v.1.15,2013-10-01 03:49:00,
2013-09-30 23:50:00,59.5,55.3,29.97,SSE,153,0.0,0.0,86,0.00,,,0.00,Wunderground v.1.15,2013-10-01 03:50:00,
2013-09-30 23:52:00,59.3,55.4,29.97,SSE,153,0.0,0.0,87,0.00,,,0.00,Wunderground v.1.15,2013-10-01 03:52:00,
2013-09-30 23:53:00,59.2,55.3,29.97,SSE,153,0.0,0.0,87,0.00,,,0.00,Wunderground v.1.15,2013-10-01 03:53:00,
2013-09-30 23:55:00,59.2,55.3,29.97,SSE,153,0.0,0.0,87,0.00,,,0.00,Wunderground v.1.15,2013-10-01 03:55:00,
2013-09-30 23:57:00,59.0,55.1,29.97,SSE,153,0.0,0.0,87,0.00,,,0.00,Wunderground v.1.15,2013-10-01 03:57:00,
2013-09-30 23:58:00,58.9,55.0,29.97,SSE,153,0.0,0.0,87,0.00,,,0.00,Wunderground v.1.15,2013-10-01 03:58:00,
2013-09-30 23:59:00,58.9,55.0,29.97,SSE,153,0.0,0.0,87,0.00,,,0.00,Wunderground v.1.15,2013-10-01 03:59:00,